Time,TemperatureF,DewpointF,PressureIn,WindDirection,WindDirectionDegrees,WindSpeedMPH,WindSpeedGustMPH,Humidity,HourlyPrecipIn,Conditions,Clouds,dailyrainin,SoftwareType,DateUTC
2013-04-10 00:00:00,70.5,58.2,29.99,South,190,0.0,7.0,65,0.00,,---,0.00,VWS V13.01,2013-04-10 04:00:00,
2013-04-10 00:05:00,70.4,58.1,29.99,SW,221,0.0,5.0,65,0.00,,---,0.00,VWS V13.01,2013-04-10 04:05:00,
2013-04-10 00:10:00,70.3,58.0,29.99,SW,220,0.0,5.0,65,0.00,,---,0.00,VWS V13.01,2013-04-10 04:10:00,
2013-04-10 00:15:00,70.2,58.3,29.99,West,279,0.0,5.0,66,0.00,,---,0.00,VWS V13.01,2013-04-10 04:15:00,
2013-04-10 00:20:00,70.1,58.2,29.99,SW,222,1.0,5.0,66,0.00,,---,0.00,VWS V13.01,2013-04-10 04:20:00,
2013-04-10 00:25:00,70.0,58.1,29.99,WSW,248,0.0,5.0,66,0.00,,---,0.00,VWS V13.01,2013-04-10 04:25:00,
2013-04-10 00:30:00,69.8,57.9,29.99,WSW,244,0.0,5.0,66,0.00,,---,0.00,VWS V13.01,2013-04-10 04:30:00,
2013-04-10 00:35:00,69.7,57.8,29.99,WSW,244,0.0,1.0,66,0.00,,---,0.00,VWS V13.01,2013-04-10 04:35:00,
2013-04-10 00:36:00,69.7,57.8,29.99,WSW,246,2.0,3.0,66,0.00,,---,0.00,VWS V13.01,2013-04-10 04:36:00,
2013-04-10 00:37:00,69.7,57.8,29.99,WSW,246,0.0,3.0,66,0.00,,---,0.00,VWS V13.01,2013-04-10 04:37:00,
2013-04-10 00:40:00,69.6,57.8,29.99,SSW,209,0.0,7.0,66,0.00,,---,0.00,VWS V13.01,2013-04-10 04:40:00,
2013-04-10 00:42:00,69.5,57.7,29.99,SSW,206,0.0,7.0,66,0.00,,---,0.00,VWS V13.01,2013-04-10 04:42:00,
2013-04-10 00:45:00,69.4,58.0,29.99,SSW,199,0.0,7.0,67,0.00,,---,0.00,VWS V13.01,2013-04-10 04:45:00,
2013-04-10 00:46:00,69.4,58.0,29.99,SSW,199,0.0,7.0,67,0.00,,---,0.00,VWS V13.01,2013-04-10 04:46:00,
2013-04-10 00:47:00,69.4,58.0,29.99,SSW,199,2.0,7.0,67,0.00,,---,0.00,VWS V13.01,2013-04-10 04:47:00,
2013-04-10 00:51:00,69.2,57.8,29.99,SW,227,0.0,7.0,67,0.00,,---,0.00,VWS V13.01,2013-04-10 04:51:00,
2013-04-10 00:52:00,69.2,57.8,29.99,WSW,240,0.0,7.0,67,0.00,,---,0.00,VWS V13.01,2013-04-10 04:52:00,
2013-04-10 00:56:00,69.1,58.1,29.99,SW,220,0.0,7.0,68,0.00,,---,0.00,VWS V13.01,2013-04-10 04:56:00,
2013-04-10 00:57:00,69.1,58.1,29.99,SW,219,0.0,7.0,68,0.00,,---,0.00,VWS V13.01,2013-04-10 04:57:00,
2013-04-10 01:01:00,69.0,58.0,29.99,SW,221,4.0,7.0,68,0.00,,---,0.00,VWS V13.01,2013-04-10 05:01:00,
2013-04-10 01:02:00,68.9,57.9,29.99,SW,229,2.0,7.0,68,0.00,,---,0.00,VWS V13.01,2013-04-10 05:02:00,
2013-04-10 01:06:00,68.8,57.8,29.99,SW,229,0.0,7.0,68,0.00,,---,0.00,VWS V13.01,2013-04-10 05:06:00,
2013-04-10 01:07:00,68.8,57.8,29.99,SW,229,0.0,7.0,68,0.00,,---,0.00,VWS V13.01,2013-04-10 05:07:00,
2013-04-10 01:11:00,68.7,57.7,29.99,SW,216,0.0,7.0,68,0.00,,---,0.00,VWS V13.01,2013-04-10 05:11:00,
2013-04-10 01:12:00,68.7,57.7,29.99,SW,216,0.0,7.0,68,0.00,,---,0.00,VWS V13.01,2013-04-10 05:12:00,
2013-04-10 01:13:00,68.7,57.7,29.99,SW,215,0.0,7.0,68,0.00,,---,0.00,VWS V13.01,2013-04-10 05:13:00,
2013-04-10 01:16:00,68.6,57.6,29.99,SW,216,0.0,7.0,68,0.00,,---,0.00,VWS V13.01,2013-04-10 05:16:00,
2013-04-10 01:17:00,68.6,57.6,29.99,SW,216,0.0,7.0,68,0.00,,---,0.00,VWS V13.01,2013-04-10 05:17:00,
2013-04-10 01:18:00,68.5,57.5,29.99,SW,215,0.0,7.0,68,0.00,,---,0.00,VWS V13.01,2013-04-10 05:18:00,
2013-04-10 01:21:00,68.4,57.8,29.99,SSW,207,0.0,7.0,69,0.00,,---,0.00,VWS V13.01,2013-04-10 05:21:00,
2013-04-10 01:22:00,68.4,57.8,29.99,SSW,207,0.0,7.0,69,0.00,,---,0.00,VWS V13.01,2013-04-10 05:22:00,
2013-04-10 01:23:00,68.4,57.8,29.99,SSW,208,0.0,7.0,69,0.00,,---,0.00,VWS V13.01,2013-04-10 05:23:00,
2013-04-10 01:26:00,68.3,57.8,29.99,SW,223,0.0,7.0,69,0.00,,---,0.00,VWS V13.01,2013-04-10 05:26:00,
2013-04-10 01:27:00,68.3,57.8,29.99,SW,223,0.0,7.0,69,0.00,,---,0.00,VWS V13.01,2013-04-10 05:27:00,
2013-04-10 01:28:00,68.3,57.8,29.99,SW,223,0.0,7.0,69,0.00,,---,0.00,VWS V13.01,2013-04-10 05:28:00,
2013-04-10 01:33:00,68.1,57.6,29.99,SW,222,0.0,1.0,69,0.00,,---,0.00,VWS V13.01,2013-04-10 05:33:00,
2013-04-10 01:38:00,68.0,57.5,29.99,SW,222,0.0,2.0,69,0.00,,---,0.00,VWS V13.01,2013-04-10 05:38:00,
2013-04-10 01:43:00,67.9,57.4,29.99,SW,223,0.0,2.0,69,0.00,,---,0.00,VWS V13.01,2013-04-10 05:43:00,
2013-04-10 01:44:00,67.9,57.4,29.99,SW,222,0.0,2.0,69,0.00,,---,0.00,VWS V13.01,2013-04-10 05:44:00,
2013-04-10 01:48:00,67.8,57.3,29.99,SW,223,0.0,3.0,69,0.00,,---,0.00,VWS V13.01,2013-04-10 05:48:00,
2013-04-10 01:49:00,67.7,57.2,29.99,SW,223,0.0,3.0,69,0.00,,---,0.00,VWS V13.01,2013-04-10 05:49:00,
2013-04-10 01:53:00,67.6,57.5,29.98,SW,222,0.0,3.0,70,0.00,,---,0.00,VWS V13.01,2013-04-10 05:53:00,
2013-04-10 01:54:00,67.6,57.5,29.98,SW,223,0.0,3.0,70,0.00,,---,0.00,VWS V13.01,2013-04-10 05:54:00,
2013-04-10 01:58:00,67.5,57.4,29.98,SSW,209,1.0,5.0,70,0.00,,---,0.00,VWS V13.01,2013-04-10 05:58:00,
2013-04-10 01:59:00,67.5,57.4,29.98,SSW,210,5.0,5.0,70,0.00,,---,0.00,VWS V13.01,2013-04-10 05:59:00,
2013-04-10 02:03:00,67.4,57.7,29.98,SSW,208,0.0,4.0,71,0.00,,---,0.00,VWS V13.01,2013-04-10 06:03:00,
2013-04-10 02:04:00,67.4,57.7,29.98,SW,217,3.0,4.0,71,0.00,,---,0.00,VWS V13.01,2013-04-10 06:04:00,
2013-04-10 02:08:00,67.3,57.6,29.98,SW,221,0.0,4.0,71,0.00,,---,0.00,VWS V13.01,2013-04-10 06:08:00,
2013-04-10 02:09:00,67.3,57.6,29.98,SW,223,0.0,4.0,71,0.00,,---,0.00,VWS V13.01,2013-04-10 06:09:00,
2013-04-10 02:13:00,67.3,57.6,29.98,West,261,0.0,5.0,71,0.00,,---,0.00,VWS V13.01,2013-04-10 06:13:00,
2013-04-10 02:14:00,67.3,57.6,29.98,West,261,0.0,5.0,71,0.00,,---,0.00,VWS V13.01,2013-04-10 06:14:00,
2013-04-10 02:19:00,67.4,57.7,29.98,SSW,198,0.0,5.0,71,0.00,,---,0.00,VWS V13.01,2013-04-10 06:19:00,
2013-04-10 02:24:00,67.5,57.8,29.98,SSW,204,0.0,5.0,71,0.00,,---,0.00,VWS V13.01,2013-04-10 06:24:00,
2013-04-10 02:29:00,67.6,57.9,29.98,NNW,329,0.0,6.0,71,0.00,,---,0.00,VWS V13.01,2013-04-10 06:29:00,
2013-04-10 02:34:00,67.7,58.0,29.98,NNW,329,0.0,3.0,71,0.00,,---,0.00,VWS V13.01,2013-04-10 06:34:00,
2013-04-10 02:35:00,67.7,58.0,29.98,NNW,329,0.0,3.0,71,0.00,,---,0.00,VWS V13.01,2013-04-10 06:35:00,
2013-04-10 02:39:00,67.9,58.2,29.98,WSW,245,0.0,3.0,71,0.00,,---,0.00,VWS V13.01,2013-04-10 06:39:00,
2013-04-10 02:40:00,67.9,58.2,29.98,WSW,245,0.0,3.0,71,0.00,,---,0.00,VWS V13.01,2013-04-10 06:40:00,
2013-04-10 02:44:00,67.9,57.8,29.98,WSW,244,0.0,3.0,70,0.00,,---,0.00,VWS V13.01,2013-04-10 06:44:00,
2013-04-10 02:45:00,67.9,57.8,29.98,WSW,244,0.0,3.0,70,0.00,,---,0.00,VWS V13.01,2013-04-10 06:45:00,
2013-04-10 02:49:00,68.0,57.9,29.98,SW,236,0.0,3.0,70,0.00,,---,0.00,VWS V13.01,2013-04-10 06:49:00,
2013-04-10 02:50:00,68.0,57.9,29.98,SW,236,0.0,3.0,70,0.00,,---,0.00,VWS V13.01,2013-04-10 06:50:00,
2013-04-10 02:54:00,68.0,57.9,29.98,SW,236,0.0,3.0,70,0.00,,---,0.00,VWS V13.01,2013-04-10 06:54:00,
2013-04-10 02:55:00,68.0,57.9,29.98,SW,236,0.0,3.0,70,0.00,,---,0.00,VWS V13.01,2013-04-10 06:55:00,
2013-04-10 02:59:00,68.1,58.0,29.98,SW,236,0.0,3.0,70,0.00,,---,0.00,VWS V13.01,2013-04-10 06:59:00,
2013-04-10 03:00:00,68.1,58.0,29.98,SW,236,0.0,3.0,70,0.00,,---,0.00,VWS V13.01,2013-04-10 07:00:00,
2013-04-10 03:04:00,68.0,57.9,29.98,SW,236,0.0,1.0,70,0.00,,---,0.00,VWS V13.01,2013-04-10 07:04:00,
2013-04-10 03:05:00,68.0,57.9,29.98,SW,236,0.0,1.0,70,0.00,,---,0.00,VWS V13.01,2013-04-10 07:05:00,
2013-04-10 03:09:00,68.0,57.9,29.98,SW,226,0.0,5.0,70,0.00,,---,0.00,VWS V13.01,2013-04-10 07:09:00,
2013-04-10 03:10:00,68.0,57.9,29.98,SW,226,1.0,5.0,70,0.00,,---,0.00,VWS V13.01,2013-04-10 07:10:00,
2013-04-10 03:14:00,68.0,57.9,29.98,SW,223,0.0,5.0,70,0.00,,---,0.00,VWS V13.01,2013-04-10 07:14:00,
2013-04-10 03:15:00,68.0,57.9,29.98,SW,215,2.0,5.0,70,0.00,,---,0.00,VWS V13.01,2013-04-10 07:15:00,
2013-04-10 03:16:00,68.0,57.9,29.98,SW,214,0.0,5.0,70,0.00,,---,0.00,VWS V13.01,2013-04-10 07:16:00,
2013-04-10 03:19:00,67.9,57.8,29.98,SW,215,0.0,5.0,70,0.00,,---,0.00,VWS V13.01,2013-04-10 07:19:00,
2013-04-10 03:21:00,67.9,57.8,29.98,SW,214,0.0,5.0,70,0.00,,---,0.00,VWS V13.01,2013-04-10 07:21:00,
2013-04-10 03:24:00,67.9,57.8,29.98,SW,215,0.0,5.0,70,0.00,,---,0.00,VWS V13.01,2013-04-10 07:24:00,
2013-04-10 03:25:00,67.9,57.8,29.98,SW,214,0.0,5.0,70,0.00,,---,0.00,VWS V13.01,2013-04-10 07:25:00,
2013-04-10 03:26:00,67.9,57.8,29.98,SW,215,0.0,5.0,70,0.00,,---,0.00,VWS V13.01,2013-04-10 07:26:00,
2013-04-10 03:27:00,67.9,57.8,29.98,SW,215,0.0,5.0,70,0.00,,---,0.00,VWS V13.01,2013-04-10 07:27:00,
2013-04-10 03:30:00,67.9,57.8,29.98,SSW,211,0.0,5.0,70,0.00,,---,0.00,VWS V13.01,2013-04-10 07:30:00,
2013-04-10 03:31:00,67.9,57.8,29.98,SW,217,3.0,4.0,70,0.00,,---,0.00,VWS V13.01,2013-04-10 07:31:00,
2013-04-10 03:32:00,67.9,58.2,29.98,SW,217,0.0,4.0,71,0.00,,---,0.00,VWS V13.01,2013-04-10 07:32:00,
2013-04-10 03:35:00,67.8,58.1,29.98,SW,217,0.0,4.0,71,0.00,,---,0.00,VWS V13.01,2013-04-10 07:35:00,
2013-04-10 03:36:00,67.8,58.1,29.98,SW,217,0.0,4.0,71,0.00,,---,0.00,VWS V13.01,2013-04-10 07:36:00,
2013-04-10 03:37:00,67.8,58.1,29.98,WNW,290,0.0,4.0,71,0.00,,---,0.00,VWS V13.01,2013-04-10 07:37:00,
2013-04-10 03:40:00,67.8,58.1,29.98,WNW,290,0.0,4.0,71,0.00,,---,0.00,VWS V13.01,2013-04-10 07:40:00,
2013-04-10 03:41:00,67.7,58.0,29.98,WNW,288,0.0,4.0,71,0.00,,---,0.00,VWS V13.01,2013-04-10 07:41:00,
2013-04-10 03:43:00,67.7,58.0,29.98,WNW,288,0.0,4.0,71,0.00,,---,0.00,VWS V13.01,2013-04-10 07:43:00,
2013-04-10 03:45:00,67.7,58.0,29.98,WNW,288,0.0,4.0,71,0.00,,---,0.00,VWS V13.01,2013-04-10 07:45:00,
2013-04-10 03:47:00,67.6,57.9,29.99,WNW,288,0.0,4.0,71,0.00,,---,0.00,VWS V13.01,2013-04-10 07:47:00,
2013-04-10 03:48:00,67.6,57.9,29.99,WNW,288,0.0,4.0,71,0.00,,---,0.00,VWS V13.01,2013-04-10 07:48:00,
2013-04-10 03:50:00,67.6,57.9,29.99,WNW,288,0.0,4.0,71,0.00,,---,0.00,VWS V13.01,2013-04-10 07:50:00,
2013-04-10 03:52:00,67.6,57.9,29.99,WNW,288,0.0,4.0,71,0.00,,---,0.00,VWS V13.01,2013-04-10 07:52:00,
2013-04-10 03:54:00,67.5,57.8,29.99,West,263,2.0,4.0,71,0.00,,---,0.00,VWS V13.01,2013-04-10 07:54:00,
2013-04-10 03:55:00,67.5,57.8,29.99,West,263,0.0,4.0,71,0.00,,---,0.00,VWS V13.01,2013-04-10 07:55:00,
2013-04-10 03:57:00,67.5,57.8,29.99,West,263,0.0,4.0,71,0.00,,---,0.00,VWS V13.01,2013-04-10 07:57:00,
2013-04-10 03:59:00,67.4,57.7,29.99,West,263,0.0,4.0,71,0.00,,---,0.00,VWS V13.01,2013-04-10 07:59:00,
2013-04-10 04:00:00,67.4,57.7,29.99,West,263,0.0,4.0,71,0.00,,---,0.00,VWS V13.01,2013-04-10 08:00:00,
2013-04-10 04:02:00,67.4,57.7,29.99,West,263,0.0,0.0,71,0.00,,---,0.00,VWS V13.01,2013-04-10 08:02:00,
2013-04-10 04:04:00,67.4,58.1,29.99,SW,232,0.0,5.0,72,0.00,,---,0.00,VWS V13.01,2013-04-10 08:04:00,
2013-04-10 04:05:00,67.3,58.0,29.99,SW,232,0.0,5.0,72,0.00,,---,0.00,VWS V13.01,2013-04-10 08:05:00,
2013-04-10 04:07:00,67.3,58.0,29.99,SW,232,0.0,5.0,72,0.00,,---,0.00,VWS V13.01,2013-04-10 08:07:00,
2013-04-10 04:09:00,67.2,57.9,29.99,SW,233,0.0,5.0,72,0.00,,---,0.00,VWS V13.01,2013-04-10 08:09:00,
2013-04-10 04:10:00,67.2,57.9,29.99,SW,233,0.0,5.0,72,0.00,,---,0.00,VWS V13.01,2013-04-10 08:10:00,
2013-04-10 04:12:00,67.2,57.9,29.99,SW,233,0.0,5.0,72,0.00,,---,0.00,VWS V13.01,2013-04-10 08:12:00,
2013-04-10 04:14:00,67.1,57.8,29.99,SW,233,0.0,5.0,72,0.00,,---,0.00,VWS V13.01,2013-04-10 08:14:00,
2013-04-10 04:15:00,67.1,57.8,29.99,SW,233,0.0,5.0,72,0.00,,---,0.00,VWS V13.01,2013-04-10 08:15:00,
2013-04-10 04:18:00,67.0,57.7,29.99,SSW,213,0.0,7.0,72,0.00,,---,0.00,VWS V13.01,2013-04-10 08:18:00,
2013-04-10 04:19:00,67.0,58.1,29.99,SSW,213,0.0,7.0,73,0.00,,---,0.00,VWS V13.01,2013-04-10 08:19:00,
2013-04-10 04:20:00,67.0,58.1,29.99,SSW,213,0.0,7.0,73,0.00,,---,0.00,VWS V13.01,2013-04-10 08:20:00,
2013-04-10 04:23:00,66.9,58.0,29.99,SSW,213,0.0,7.0,73,0.00,,---,0.00,VWS V13.01,2013-04-10 08:23:00,
2013-04-10 04:24:00,66.9,58.0,29.99,WSW,246,14.0,14.0,73,0.00,,---,0.00,VWS V13.01,2013-04-10 08:24:00,
2013-04-10 04:25:00,66.9,58.0,29.99,WSW,248,0.0,14.0,73,0.00,,---,0.00,VWS V13.01,2013-04-10 08:25:00,
2013-04-10 04:28:00,66.9,58.0,29.99,SW,232,0.0,14.0,73,0.00,,---,0.00,VWS V13.01,2013-04-10 08:28:00,
2013-04-10 04:29:00,66.9,58.0,29.99,SW,232,1.0,14.0,73,0.00,,---,0.00,VWS V13.01,2013-04-10 08:29:00,
2013-04-10 04:30:00,66.8,57.9,29.99,SW,225,6.0,14.0,73,0.00,,---,0.00,VWS V13.01,2013-04-10 08:30:00,
2013-04-10 04:33:00,66.9,58.0,29.99,WSW,257,0.0,9.0,73,0.00,,---,0.00,VWS V13.01,2013-04-10 08:33:00,
2013-04-10 04:34:00,66.8,57.9,29.99,WSW,257,0.0,9.0,73,0.00,,---,0.00,VWS V13.01,2013-04-10 08:34:00,
2013-04-10 04:35:00,66.9,58.0,29.99,WSW,254,2.0,9.0,73,0.00,,---,0.00,VWS V13.01,2013-04-10 08:35:00,
2013-04-10 04:38:00,66.8,57.9,29.99,SW,230,4.0,9.0,73,0.00,,---,0.00,VWS V13.01,2013-04-10 08:38:00,
2013-04-10 04:39:00,66.8,57.9,29.99,SW,229,0.0,9.0,73,0.00,,---,0.00,VWS V13.01,2013-04-10 08:39:00,
2013-04-10 04:40:00,66.8,57.9,29.99,SW,229,0.0,9.0,73,0.00,,---,0.00,VWS V13.01,2013-04-10 08:40:00,
2013-04-10 04:43:00,66.8,57.9,29.99,WSW,248,5.0,9.0,73,0.00,,---,0.00,VWS V13.01,2013-04-10 08:43:00,
2013-04-10 04:44:00,66.8,57.9,29.99,WSW,252,0.0,9.0,73,0.00,,---,0.00,VWS V13.01,2013-04-10 08:44:00,
2013-04-10 04:45:00,66.8,57.9,29.99,WSW,252,0.0,9.0,73,0.00,,---,0.00,VWS V13.01,2013-04-10 08:45:00,
2013-04-10 04:48:00,66.8,57.9,29.99,WSW,252,0.0,9.0,73,0.00,,---,0.00,VWS V13.01,2013-04-10 08:48:00,
2013-04-10 04:49:00,66.8,57.9,29.99,WSW,252,0.0,9.0,73,0.00,,---,0.00,VWS V13.01,2013-04-10 08:49:00,
2013-04-10 04:50:00,66.8,57.9,29.99,WSW,252,0.0,9.0,73,0.00,,---,0.00,VWS V13.01,2013-04-10 08:50:00,
2013-04-10 04:54:00,66.7,57.8,29.99,SSW,211,0.0,9.0,73,0.00,,---,0.00,VWS V13.01,2013-04-10 08:54:00,
2013-04-10 04:55:00,66.7,57.8,29.99,SSW,210,0.0,9.0,73,0.00,,---,0.00,VWS V13.01,2013-04-10 08:55:00,
2013-04-10 04:58:00,66.7,57.8,29.99,SSW,201,2.0,9.0,73,0.00,,---,0.00,VWS V13.01,2013-04-10 08:58:00,
2013-04-10 04:59:00,66.7,57.8,29.99,SSW,201,1.0,9.0,73,0.00,,---,0.00,VWS V13.01,2013-04-10 08:59:00,
2013-04-10 05:00:00,66.7,57.8,29.99,SSW,210,1.0,9.0,73,0.00,,---,0.00,VWS V13.01,2013-04-10 09:00:00,
2013-04-10 05:04:00,66.6,57.7,29.99,WSW,239,0.0,3.0,73,0.00,,---,0.00,VWS V13.01,2013-04-10 09:04:00,
2013-04-10 05:05:00,66.5,57.6,29.99,WSW,238,0.0,3.0,73,0.00,,---,0.00,VWS V13.01,2013-04-10 09:05:00,
2013-04-10 05:06:00,66.5,58.0,29.99,WSW,239,0.0,3.0,74,0.00,,---,0.00,VWS V13.01,2013-04-10 09:06:00,
2013-04-10 05:09:00,66.4,57.5,29.99,SW,228,4.0,4.0,73,0.00,,---,0.00,VWS V13.01,2013-04-10 09:09:00,
2013-04-10 05:10:00,66.4,57.9,30.00,SW,227,0.0,4.0,74,0.00,,---,0.00,VWS V13.01,2013-04-10 09:10:00,
2013-04-10 05:11:00,66.4,57.9,30.00,West,271,0.0,4.0,74,0.00,,---,0.00,VWS V13.01,2013-04-10 09:11:00,
2013-04-10 05:14:00,66.3,57.8,29.99,SW,227,0.0,4.0,74,0.00,,---,0.00,VWS V13.01,2013-04-10 09:14:00,
2013-04-10 05:15:00,66.3,57.8,30.00,WSW,241,2.0,4.0,74,0.00,,---,0.00,VWS V13.01,2013-04-10 09:15:00,
2013-04-10 05:16:00,66.3,57.8,30.00,SSW,198,0.0,4.0,74,0.00,,---,0.00,VWS V13.01,2013-04-10 09:16:00,
2013-04-10 05:19:00,66.2,57.7,30.00,South,190,0.0,4.0,74,0.00,,---,0.00,VWS V13.01,2013-04-10 09:19:00,
2013-04-10 05:20:00,66.2,58.0,30.00,WSW,238,0.0,4.0,75,0.00,,---,0.00,VWS V13.01,2013-04-10 09:20:00,
2013-04-10 05:22:00,66.1,57.6,30.00,WSW,238,0.0,4.0,74,0.00,,---,0.00,VWS V13.01,2013-04-10 09:22:00,
2013-04-10 05:24:00,66.1,58.0,30.00,SW,215,0.0,5.0,75,0.00,,---,0.00,VWS V13.01,2013-04-10 09:24:00,
2013-04-10 05:25:00,66.0,57.9,30.00,West,263,2.0,5.0,75,0.00,,---,0.00,VWS V13.01,2013-04-10 09:25:00,
2013-04-10 05:27:00,66.0,57.9,30.00,West,261,0.0,6.0,75,0.00,,---,0.00,VWS V13.01,2013-04-10 09:27:00,
2013-04-10 05:29:00,66.0,57.9,30.00,West,263,0.0,6.0,75,0.00,,---,0.00,VWS V13.01,2013-04-10 09:29:00,
2013-04-10 05:30:00,66.0,57.9,30.00,West,263,0.0,6.0,75,0.00,,---,0.00,VWS V13.01,2013-04-10 09:30:00,
2013-04-10 05:32:00,66.0,57.9,30.00,West,263,0.0,0.0,75,0.00,,---,0.00,VWS V13.01,2013-04-10 09:32:00,
2013-04-10 05:34:00,65.9,57.8,30.00,West,263,0.0,1.0,75,0.00,,---,0.00,VWS V13.01,2013-04-10 09:34:00,
2013-04-10 05:35:00,65.9,57.8,30.00,West,263,0.0,1.0,75,0.00,,---,0.00,VWS V13.01,2013-04-10 09:35:00,
2013-04-10 05:38:00,65.9,57.8,30.00,SW,229,0.0,4.0,75,0.00,,---,0.00,VWS V13.01,2013-04-10 09:38:00,
2013-04-10 05:39:00,65.9,57.8,30.00,SW,229,0.0,4.0,75,0.00,,---,0.00,VWS V13.01,2013-04-10 09:39:00,
2013-04-10 05:40:00,65.8,57.7,30.00,WSW,244,1.0,4.0,75,0.00,,---,0.00,VWS V13.01,2013-04-10 09:40:00,
2013-04-10 05:43:00,65.8,57.7,30.00,WSW,242,5.0,5.0,75,0.00,,---,0.00,VWS V13.01,2013-04-10 09:43:00,
2013-04-10 05:44:00,65.8,57.7,30.00,SSW,208,5.0,6.0,75,0.00,,---,0.00,VWS V13.01,2013-04-10 09:44:00,
2013-04-10 05:45:00,65.8,58.0,30.00,SW,225,1.0,6.0,76,0.00,,---,0.00,VWS V13.01,2013-04-10 09:45:00,
2013-04-10 05:48:00,65.8,58.0,29.99,SW,229,0.0,6.0,76,0.00,,---,0.00,VWS V13.01,2013-04-10 09:48:00,
2013-04-10 05:49:00,65.8,58.0,30.00,WSW,245,0.0,6.0,76,0.00,,---,0.00,VWS V13.01,2013-04-10 09:49:00,
2013-04-10 05:50:00,65.8,58.0,30.00,WSW,245,0.0,6.0,76,0.00,,---,0.00,VWS V13.01,2013-04-10 09:50:00,
2013-04-10 05:53:00,65.7,57.9,30.00,WSW,245,0.0,6.0,76,0.00,,---,0.00,VWS V13.01,2013-04-10 09:53:00,
2013-04-10 05:54:00,65.7,57.9,29.99,WSW,245,0.0,6.0,76,0.00,,---,0.00,VWS V13.01,2013-04-10 09:54:00,
2013-04-10 05:55:00,65.7,57.9,30.00,WSW,245,0.0,6.0,76,0.00,,---,0.00,VWS V13.01,2013-04-10 09:55:00,
2013-04-10 05:56:00,65.7,57.9,30.00,SSW,202,4.0,6.0,76,0.00,,---,0.00,VWS V13.01,2013-04-10 09:56:00,
2013-04-10 05:58:00,65.7,57.9,30.00,WSW,243,0.0,6.0,76,0.00,,---,0.00,VWS V13.01,2013-04-10 09:58:00,
2013-04-10 06:00:00,65.7,57.9,30.00,SW,214,7.0,8.0,76,0.00,,---,0.00,VWS V13.01,2013-04-10 10:00:00,
2013-04-10 06:01:00,65.6,57.8,30.00,SSW,213,0.0,8.0,76,0.00,,---,0.00,VWS V13.01,2013-04-10 10:01:00,
2013-04-10 06:03:00,65.6,57.8,30.00,SW,219,0.0,4.0,76,0.00,,---,0.00,VWS V13.01,2013-04-10 10:03:00,
2013-04-10 06:05:00,65.6,57.8,29.99,SW,218,0.0,4.0,76,0.00,,---,0.00,VWS V13.01,2013-04-10 10:05:00,
2013-04-10 06:06:00,65.6,57.8,30.00,South,181,0.0,4.0,76,0.00,,---,0.00,VWS V13.01,2013-04-10 10:06:00,
2013-04-10 06:08:00,65.5,57.7,30.00,WSW,242,0.0,4.0,76,0.00,,---,0.00,VWS V13.01,2013-04-10 10:08:00,
2013-04-10 06:10:00,65.5,57.7,30.00,SW,216,3.0,5.0,76,0.00,,---,0.00,VWS V13.01,2013-04-10 10:10:00,
2013-04-10 06:11:00,65.5,57.7,30.00,WSW,241,0.0,5.0,76,0.00,,---,0.00,VWS V13.01,2013-04-10 10:11:00,
2013-04-10 06:13:00,65.4,57.7,29.99,WSW,241,0.0,5.0,76,0.00,,---,0.00,VWS V13.01,2013-04-10 10:13:00,
2013-04-10 06:15:00,65.4,57.7,29.99,SSW,212,0.0,5.0,76,0.00,,---,0.00,VWS V13.01,2013-04-10 10:15:00,
2013-04-10 06:16:00,65.4,57.7,29.99,SSW,212,0.0,5.0,76,0.00,,---,0.00,VWS V13.01,2013-04-10 10:16:00,
2013-04-10 06:18:00,65.4,57.7,30.00,SSW,211,0.0,5.0,76,0.00,,---,0.00,VWS V13.01,2013-04-10 10:18:00,
2013-04-10 06:20:00,65.3,57.5,30.00,WSW,249,0.0,5.0,76,0.00,,---,0.00,VWS V13.01,2013-04-10 10:20:00,
2013-04-10 06:22:00,65.3,57.5,30.00,WSW,249,0.0,5.0,76,0.00,,---,0.00,VWS V13.01,2013-04-10 10:22:00,
2013-04-10 06:23:00,65.3,57.5,30.00,WSW,249,0.0,5.0,76,0.00,,---,0.00,VWS V13.01,2013-04-10 10:23:00,
2013-04-10 06:25:00,65.2,57.8,30.00,WSW,249,0.0,5.0,77,0.00,,---,0.00,VWS V13.01,2013-04-10 10:25:00,
2013-04-10 06:27:00,65.2,57.5,30.00,WSW,250,0.0,5.0,76,0.00,,---,0.00,VWS V13.01,2013-04-10 10:27:00,
2013-04-10 06:28:00,65.2,57.5,30.00,WSW,250,0.0,5.0,76,0.00,,---,0.00,VWS V13.01,2013-04-10 10:28:00,
2013-04-10 06:30:00,65.1,57.7,30.00,WSW,250,0.0,5.0,77,0.00,,---,0.00,VWS V13.01,2013-04-10 10:30:00,
2013-04-10 06:32:00,65.1,57.7,30.00,WSW,253,0.0,2.0,77,0.00,,---,0.00,VWS V13.01,2013-04-10 10:32:00,
2013-04-10 06:33:00,65.0,57.6,30.00,WSW,253,0.0,2.0,77,0.00,,---,0.00,VWS V13.01,2013-04-10 10:33:00,
2013-04-10 06:35:00,65.0,57.6,30.00,WSW,253,0.0,2.0,77,0.00,,---,0.00,VWS V13.01,2013-04-10 10:35:00,
2013-04-10 06:37:00,64.9,57.5,30.00,WSW,253,0.0,2.0,77,0.00,,---,0.00,VWS V13.01,2013-04-10 10:37:00,
2013-04-10 06:39:00,64.9,57.5,30.00,WSW,254,0.0,3.0,77,0.00,,---,0.00,VWS V13.01,2013-04-10 10:39:00,
2013-04-10 06:40:00,64.8,57.4,30.00,WSW,254,0.0,3.0,77,0.00,,---,0.00,VWS V13.01,2013-04-10 10:40:00,
2013-04-10 06:42:00,64.8,57.4,30.00,WSW,254,0.0,3.0,77,0.00,,---,0.00,VWS V13.01,2013-04-10 10:42:00,
2013-04-10 06:44:00,64.7,57.3,30.00,WSW,253,0.0,3.0,77,0.00,,---,0.00,VWS V13.01,2013-04-10 10:44:00,
2013-04-10 06:46:00,64.6,57.2,30.00,WSW,253,0.0,3.0,77,0.00,,---,0.00,VWS V13.01,2013-04-10 10:46:00,
2013-04-10 06:47:00,64.6,57.2,30.00,WSW,253,0.0,3.0,77,0.00,,---,0.00,VWS V13.01,2013-04-10 10:47:00,
2013-04-10 06:49:00,64.5,57.1,30.00,WSW,254,0.0,3.0,77,0.00,,---,0.00,VWS V13.01,2013-04-10 10:49:00,
2013-04-10 06:52:00,64.4,57.0,30.00,WSW,254,0.0,3.0,77,0.00,,---,0.00,VWS V13.01,2013-04-10 10:52:00,
2013-04-10 06:54:00,64.3,57.0,30.00,WSW,254,0.0,3.0,77,0.00,,---,0.00,VWS V13.01,2013-04-10 10:54:00,
2013-04-10 06:57:00,64.2,57.2,30.00,WSW,254,0.0,3.0,78,0.00,,---,0.00,VWS V13.01,2013-04-10 10:57:00,
2013-04-10 06:58:00,64.2,57.2,30.00,WSW,254,0.0,3.0,78,0.00,,---,0.00,VWS V13.01,2013-04-10 10:58:00,
2013-04-10 06:59:00,64.1,57.1,30.00,WSW,254,0.0,3.0,78,0.00,,---,0.00,VWS V13.01,2013-04-10 10:59:00,
2013-04-10 07:02:00,64.0,57.0,30.01,WSW,253,0.0,0.0,78,0.00,,---,0.00,VWS V13.01,2013-04-10 11:02:00,
2013-04-10 07:03:00,64.0,57.0,30.01,WSW,253,0.0,1.0,78,0.00,,---,0.00,VWS V13.01,2013-04-10 11:03:00,
2013-04-10 07:04:00,63.9,56.9,30.00,WSW,254,0.0,1.0,78,0.00,,---,0.00,VWS V13.01,2013-04-10 11:04:00,
2013-04-10 07:07:00,63.8,56.8,30.01,SW,223,1.0,4.0,78,0.00,,---,0.00,VWS V13.01,2013-04-10 11:07:00,
2013-04-10 07:08:00,63.8,56.8,30.01,SW,223,0.0,4.0,78,0.00,,---,0.00,VWS V13.01,2013-04-10 11:08:00,
2013-04-10 07:09:00,63.8,57.2,30.01,SW,223,1.0,4.0,79,0.00,,---,0.00,VWS V13.01,2013-04-10 11:09:00,
2013-04-10 07:12:00,63.6,57.0,30.01,SSW,203,0.0,4.0,79,0.00,,---,0.00,VWS V13.01,2013-04-10 11:12:00,
2013-04-10 07:13:00,63.6,57.0,30.01,SSW,203,0.0,4.0,79,0.00,,---,0.00,VWS V13.01,2013-04-10 11:13:00,
2013-04-10 07:14:00,63.6,57.0,30.01,SSW,203,0.0,4.0,79,0.00,,---,0.00,VWS V13.01,2013-04-10 11:14:00,
2013-04-10 07:18:00,63.5,56.9,30.01,SSW,203,0.0,4.0,79,0.00,,---,0.00,VWS V13.01,2013-04-10 11:18:00,
2013-04-10 07:19:00,63.5,57.2,30.01,SSW,203,0.0,4.0,80,0.00,,---,0.00,VWS V13.01,2013-04-10 11:19:00,
2013-04-10 07:23:00,63.4,57.1,30.01,SSW,203,0.0,4.0,80,0.00,,---,0.00,VWS V13.01,2013-04-10 11:23:00,
2013-04-10 07:24:00,63.3,57.0,30.01,SSW,203,0.0,4.0,80,0.00,,---,0.00,VWS V13.01,2013-04-10 11:24:00,
2013-04-10 07:28:00,63.2,56.9,30.01,SSW,203,0.0,4.0,80,0.00,,---,0.00,VWS V13.01,2013-04-10 11:28:00,
2013-04-10 07:29:00,63.2,56.9,30.01,SSW,203,0.0,4.0,80,0.00,,---,0.00,VWS V13.01,2013-04-10 11:29:00,
2013-04-10 07:33:00,63.2,57.3,30.01,SSW,203,0.0,4.0,81,0.00,,---,0.00,VWS V13.01,2013-04-10 11:33:00,
2013-04-10 07:34:00,63.1,57.2,30.01,SSW,203,0.0,4.0,81,0.00,,---,0.00,VWS V13.01,2013-04-10 11:34:00,
2013-04-10 07:38:00,63.1,57.5,30.02,SSW,203,0.0,4.0,82,0.00,,---,0.00,VWS V13.01,2013-04-10 11:38:00,
2013-04-10 07:40:00,63.1,57.2,30.01,SSW,203,0.0,4.0,81,0.00,,---,0.00,VWS V13.01,2013-04-10 11:40:00,
2013-04-10 07:43:00,63.1,57.5,30.02,SSW,203,0.0,4.0,82,0.00,,---,0.00,VWS V13.01,2013-04-10 11:43:00,
2013-04-10 07:44:00,63.1,57.5,30.02,SSW,203,0.0,4.0,82,0.00,,---,0.00,VWS V13.01,2013-04-10 11:44:00,
2013-04-10 07:45:00,63.0,57.4,30.02,SSW,203,0.0,4.0,82,0.00,,---,0.00,VWS V13.01,2013-04-10 11:45:00,
2013-04-10 07:48:00,63.0,57.4,30.02,SSW,203,0.0,4.0,82,0.00,,---,0.00,VWS V13.01,2013-04-10 11:48:00,
2013-04-10 07:49:00,63.0,57.4,30.02,SSW,203,0.0,4.0,82,0.00,,---,0.00,VWS V13.01,2013-04-10 11:49:00,
2013-04-10 07:50:00,63.0,57.8,30.02,SSW,203,0.0,4.0,83,0.00,,---,0.00,VWS V13.01,2013-04-10 11:50:00,
2013-04-10 07:53:00,63.1,57.9,30.02,SSW,203,0.0,4.0,83,0.00,,---,0.00,VWS V13.01,2013-04-10 11:53:00,
2013-04-10 07:54:00,63.1,57.9,30.02,SSW,203,0.0,4.0,83,0.00,,---,0.00,VWS V13.01,2013-04-10 11:54:00,
2013-04-10 07:55:00,63.1,57.9,30.02,SSW,203,0.0,4.0,83,0.00,,---,0.00,VWS V13.01,2013-04-10 11:55:00,
2013-04-10 07:58:00,63.1,57.9,30.02,South,187,0.0,4.0,83,0.00,,---,0.00,VWS V13.01,2013-04-10 11:58:00,
2013-04-10 07:59:00,63.1,57.9,30.02,South,187,0.0,4.0,83,0.00,,---,0.00,VWS V13.01,2013-04-10 11:59:00,
2013-04-10 08:00:00,63.2,58.0,30.02,South,178,3.0,4.0,83,0.00,,---,0.00,VWS V13.01,2013-04-10 12:00:00,
2013-04-10 08:03:00,63.3,58.1,30.02,South,184,0.0,3.0,83,0.00,,---,0.00,VWS V13.01,2013-04-10 12:03:00,
2013-04-10 08:04:00,63.3,58.1,30.02,South,184,0.0,3.0,83,0.00,,---,0.00,VWS V13.01,2013-04-10 12:04:00,
2013-04-10 08:05:00,63.3,58.1,30.02,South,184,0.0,3.0,83,0.00,,---,0.00,VWS V13.01,2013-04-10 12:05:00,
2013-04-10 08:08:00,63.4,58.2,30.02,South,184,0.0,3.0,83,0.00,,---,0.00,VWS V13.01,2013-04-10 12:08:00,
2013-04-10 08:09:00,63.4,58.2,30.02,South,184,0.0,3.0,83,0.00,,---,0.00,VWS V13.01,2013-04-10 12:09:00,
2013-04-10 08:10:00,63.5,58.2,30.02,SSW,196,0.0,3.0,83,0.00,,---,0.00,VWS V13.01,2013-04-10 12:10:00,
2013-04-10 08:14:00,63.6,58.3,30.03,SSW,197,0.0,3.0,83,0.00,,---,0.00,VWS V13.01,2013-04-10 12:14:00,
2013-04-10 08:15:00,63.7,58.5,30.03,South,188,1.0,11.0,83,0.00,,---,0.00,VWS V13.01,2013-04-10 12:15:00,
2013-04-10 08:19:00,63.9,58.6,30.03,South,186,3.0,11.0,83,0.00,,---,0.00,VWS V13.01,2013-04-10 12:19:00,
2013-04-10 08:20:00,64.0,58.7,30.03,South,188,0.0,11.0,83,0.00,,---,0.00,VWS V13.01,2013-04-10 12:20:00,
2013-04-10 08:24:00,64.1,58.8,30.03,SSW,199,0.0,11.0,83,0.00,,---,0.00,VWS V13.01,2013-04-10 12:24:00,
2013-04-10 08:26:00,64.2,58.9,30.03,SSW,213,5.0,11.0,83,0.00,,---,0.00,VWS V13.01,2013-04-10 12:26:00,
2013-04-10 08:29:00,64.4,58.8,30.03,SW,214,2.0,11.0,82,0.00,,---,0.00,VWS V13.01,2013-04-10 12:29:00,
2013-04-10 08:31:00,64.5,58.9,30.03,SSW,209,0.0,1.0,82,0.00,,---,0.00,VWS V13.01,2013-04-10 12:31:00,
2013-04-10 08:34:00,64.7,59.1,30.02,SW,229,0.0,5.0,82,0.00,,---,0.00,VWS V13.01,2013-04-10 12:34:00,
2013-04-10 08:36:00,64.9,59.3,30.03,SW,236,1.0,11.0,82,0.00,,---,0.00,VWS V13.01,2013-04-10 12:36:00,
2013-04-10 08:39:00,65.1,59.5,30.02,SSW,199,0.0,11.0,82,0.00,,---,0.00,VWS V13.01,2013-04-10 12:39:00,
2013-04-10 08:42:00,65.2,59.6,30.02,SSE,157,3.0,11.0,82,0.00,,---,0.00,VWS V13.01,2013-04-10 12:42:00,
2013-04-10 08:45:00,65.5,59.5,30.02,WSW,246,1.0,11.0,81,0.00,,---,0.00,VWS V13.01,2013-04-10 12:45:00,
2013-04-10 08:47:00,65.7,59.7,30.02,WSW,252,0.0,11.0,81,0.00,,---,0.00,VWS V13.01,2013-04-10 12:47:00,
2013-04-10 08:50:00,65.9,59.9,30.02,WSW,244,1.0,11.0,81,0.00,,---,0.00,VWS V13.01,2013-04-10 12:50:00,
2013-04-10 08:52:00,66.1,59.8,30.03,WSW,241,0.0,11.0,80,0.00,,---,0.00,VWS V13.01,2013-04-10 12:52:00,
2013-04-10 08:55:00,66.3,60.3,30.03,SW,227,0.0,11.0,81,0.00,,---,0.00,VWS V13.01,2013-04-10 12:55:00,
2013-04-10 08:57:00,66.6,60.2,30.03,SSW,192,2.0,11.0,80,0.00,,---,0.00,VWS V13.01,2013-04-10 12:57:00,
2013-04-10 09:00:00,66.9,60.2,30.03,SW,234,1.0,11.0,79,0.00,,---,0.00,VWS V13.01,2013-04-10 13:00:00,
2013-04-10 09:02:00,67.2,60.5,30.03,SW,223,4.0,6.0,79,0.00,,---,0.00,VWS V13.01,2013-04-10 13:02:00,
2013-04-10 09:05:00,67.5,60.4,30.03,SSW,208,1.0,9.0,78,0.00,,---,0.00,VWS V13.01,2013-04-10 13:05:00,
2013-04-10 09:07:00,67.8,60.7,30.03,SW,234,0.0,9.0,78,0.00,,---,0.00,VWS V13.01,2013-04-10 13:07:00,
2013-04-10 09:10:00,68.1,60.6,30.03,SW,216,1.0,10.0,77,0.00,,---,0.00,VWS V13.01,2013-04-10 13:10:00,
2013-04-10 09:13:00,68.5,60.6,30.03,South,169,2.0,10.0,76,0.00,,---,0.00,VWS V13.01,2013-04-10 13:13:00,
2013-04-10 09:15:00,68.8,60.9,30.03,SW,227,0.0,10.0,76,0.00,,---,0.00,VWS V13.01,2013-04-10 13:15:00,
2013-04-10 09:16:00,68.8,60.9,30.03,SSE,161,1.0,10.0,76,0.00,,---,0.00,VWS V13.01,2013-04-10 13:16:00,
2013-04-10 09:18:00,69.1,60.8,30.03,WSW,240,8.0,10.0,75,0.00,,---,0.00,VWS V13.01,2013-04-10 13:18:00,
2013-04-10 09:20:00,69.4,60.8,30.03,SW,234,0.0,10.0,74,0.00,,---,0.00,VWS V13.01,2013-04-10 13:20:00,
2013-04-10 09:21:00,69.4,60.8,30.03,SW,234,0.0,10.0,74,0.00,,---,0.00,VWS V13.01,2013-04-10 13:21:00,
2013-04-10 09:22:00,69.5,60.9,30.03,SW,231,0.0,10.0,74,0.00,,---,0.00,VWS V13.01,2013-04-10 13:22:00,
2013-04-10 09:23:00,69.7,61.0,30.03,WSW,254,0.0,10.0,74,0.00,,---,0.00,VWS V13.01,2013-04-10 13:23:00,
2013-04-10 09:26:00,69.9,61.2,30.03,WSW,248,0.0,10.0,74,0.00,,---,0.00,VWS V13.01,2013-04-10 13:26:00,
2013-04-10 09:27:00,70.0,61.3,30.03,West,267,1.0,10.0,74,0.00,,---,0.00,VWS V13.01,2013-04-10 13:27:00,
2013-04-10 09:29:00,70.3,61.2,30.03,SW,217,0.0,10.0,73,0.00,,---,0.00,VWS V13.01,2013-04-10 13:29:00,
2013-04-10 09:32:00,70.5,61.4,30.03,SW,221,1.0,1.0,73,0.00,,---,0.00,VWS V13.01,2013-04-10 13:32:00,
2013-04-10 09:34:00,70.8,61.7,30.03,SW,221,1.0,1.0,73,0.00,,---,0.00,VWS V13.01,2013-04-10 13:34:00,
2013-04-10 09:37:00,71.2,61.7,30.03,SW,226,3.0,5.0,72,0.00,,---,0.00,VWS V13.01,2013-04-10 13:37:00,
2013-04-10 09:39:00,71.5,62.0,30.03,West,261,2.0,6.0,72,0.00,,---,0.00,VWS V13.01,2013-04-10 13:39:00,
2013-04-10 09:42:00,71.9,61.6,30.03,WSW,257,1.0,7.0,70,0.00,,---,0.00,VWS V13.01,2013-04-10 13:42:00,
2013-04-10 09:43:00,72.0,61.7,30.03,West,264,4.0,7.0,70,0.00,,---,0.00,VWS V13.01,2013-04-10 13:43:00,
2013-04-10 09:44:00,72.1,61.8,30.03,West,265,0.0,7.0,70,0.00,,---,0.00,VWS V13.01,2013-04-10 13:44:00,
2013-04-10 09:47:00,72.4,62.1,30.03,West,266,0.0,7.0,70,0.00,,---,0.00,VWS V13.01,2013-04-10 13:47:00,
2013-04-10 09:48:00,72.4,62.1,30.03,West,265,1.0,7.0,70,0.00,,---,0.00,VWS V13.01,2013-04-10 13:48:00,
2013-04-10 09:49:00,72.4,61.7,30.03,West,263,0.0,7.0,69,0.00,,---,0.00,VWS V13.01,2013-04-10 13:49:00,
2013-04-10 09:52:00,72.7,62.0,30.03,SW,217,0.0,7.0,69,0.00,,---,0.00,VWS V13.01,2013-04-10 13:52:00,
2013-04-10 09:53:00,72.8,62.0,30.03,SW,219,2.0,7.0,69,0.00,,---,0.00,VWS V13.01,2013-04-10 13:53:00,
2013-04-10 09:54:00,72.9,62.5,30.03,SW,231,3.0,7.0,70,0.00,,---,0.00,VWS V13.01,2013-04-10 13:54:00,
2013-04-10 09:58:00,73.2,62.0,30.03,SSE,148,3.0,8.0,68,0.00,,---,0.00,VWS V13.01,2013-04-10 13:58:00,
2013-04-10 09:59:00,73.3,62.1,30.03,South,191,0.0,8.0,68,0.00,,---,0.00,VWS V13.01,2013-04-10 13:59:00,
2013-04-10 10:03:00,73.7,62.5,30.03,WSW,240,1.0,1.0,68,0.00,,---,0.00,VWS V13.01,2013-04-10 14:03:00,
2013-04-10 10:04:00,73.8,62.2,30.03,WSW,240,1.0,1.0,67,0.00,,---,0.00,VWS V13.01,2013-04-10 14:04:00,
2013-04-10 10:08:00,74.1,62.5,30.02,SW,217,2.0,2.0,67,0.00,,---,0.00,VWS V13.01,2013-04-10 14:08:00,
2013-04-10 10:09:00,74.2,62.5,30.02,SE,142,0.0,10.0,67,0.00,,---,0.00,VWS V13.01,2013-04-10 14:09:00,
2013-04-10 10:13:00,74.4,61.9,30.02,SSW,193,0.0,10.0,65,0.00,,---,0.00,VWS V13.01,2013-04-10 14:13:00,
2013-04-10 10:14:00,74.4,61.9,30.02,South,185,2.0,10.0,65,0.00,,---,0.00,VWS V13.01,2013-04-10 14:14:00,
2013-04-10 10:18:00,74.6,62.1,30.02,SSW,202,6.0,10.0,65,0.00,,---,0.00,VWS V13.01,2013-04-10 14:18:00,
2013-04-10 10:19:00,74.7,61.7,30.02,West,267,1.0,10.0,64,0.00,,---,0.00,VWS V13.01,2013-04-10 14:19:00,
2013-04-10 10:23:00,75.1,62.5,30.02,WSW,240,0.0,10.0,65,0.00,,---,0.00,VWS V13.01,2013-04-10 14:23:00,
2013-04-10 10:24:00,75.2,62.6,30.02,WSW,240,0.0,10.0,65,0.00,,---,0.00,VWS V13.01,2013-04-10 14:24:00,
2013-04-10 10:28:00,75.6,62.6,30.02,West,272,0.0,10.0,64,0.00,,---,0.00,VWS V13.01,2013-04-10 14:28:00,
2013-04-10 10:29:00,75.7,62.2,30.02,SSW,213,0.0,10.0,63,0.00,,---,0.00,VWS V13.01,2013-04-10 14:29:00,
2013-04-10 10:33:00,76.2,62.7,30.02,WNW,290,0.0,2.0,63,0.00,,---,0.00,VWS V13.01,2013-04-10 14:33:00,
2013-04-10 10:34:00,76.3,62.8,30.02,WNW,290,0.0,2.0,63,0.00,,---,0.00,VWS V13.01,2013-04-10 14:34:00,
2013-04-10 10:38:00,76.7,62.7,30.02,SSW,205,6.0,9.0,62,0.00,,---,0.00,VWS V13.01,2013-04-10 14:38:00,
2013-04-10 10:39:00,76.9,62.9,30.02,SW,214,0.0,9.0,62,0.00,,---,0.00,VWS V13.01,2013-04-10 14:39:00,
2013-04-10 10:43:00,77.3,62.8,30.02,SW,219,1.0,9.0,61,0.00,,---,0.00,VWS V13.01,2013-04-10 14:43:00,
2013-04-10 10:44:00,77.4,62.9,30.02,SW,222,4.0,9.0,61,0.00,,---,0.00,VWS V13.01,2013-04-10 14:44:00,
2013-04-10 10:45:00,77.5,63.0,30.02,SSW,207,3.0,9.0,61,0.00,,---,0.00,VWS V13.01,2013-04-10 14:45:00,
2013-04-10 10:48:00,77.8,62.8,30.02,SSW,196,2.0,9.0,60,0.00,,---,0.00,VWS V13.01,2013-04-10 14:48:00,
2013-04-10 10:49:00,78.0,63.0,30.02,South,169,1.0,9.0,60,0.00,,---,0.00,VWS V13.01,2013-04-10 14:49:00,
2013-04-10 10:50:00,78.0,63.0,30.02,South,170,0.0,9.0,60,0.00,,---,0.00,VWS V13.01,2013-04-10 14:50:00,
2013-04-10 10:53:00,78.3,63.3,30.02,WNW,299,0.0,11.0,60,0.00,,---,0.00,VWS V13.01,2013-04-10 14:53:00,
2013-04-10 10:54:00,78.3,62.8,30.02,WNW,299,0.0,11.0,59,0.00,,---,0.00,VWS V13.01,2013-04-10 14:54:00,
2013-04-10 10:55:00,78.4,63.4,30.02,West,273,5.0,11.0,60,0.00,,---,0.00,VWS V13.01,2013-04-10 14:55:00,
2013-04-10 10:58:00,78.7,62.7,30.02,West,275,2.0,11.0,58,0.00,,---,0.00,VWS V13.01,2013-04-10 14:58:00,
2013-04-10 10:59:00,78.7,62.7,30.02,West,264,1.0,11.0,58,0.00,,---,0.00,VWS V13.01,2013-04-10 14:59:00,
2013-04-10 11:00:00,78.7,62.7,30.02,West,267,3.0,11.0,58,0.00,,---,0.00,VWS V13.01,2013-04-10 15:00:00,
2013-04-10 11:03:00,78.7,62.7,30.02,WSW,251,2.0,2.0,58,0.00,,---,0.00,VWS V13.01,2013-04-10 15:03:00,
2013-04-10 11:04:00,78.7,62.7,30.02,WSW,257,4.0,4.0,58,0.00,,---,0.00,VWS V13.01,2013-04-10 15:04:00,
2013-04-10 11:05:00,78.9,62.9,30.02,West,273,0.0,5.0,58,0.00,,---,0.00,VWS V13.01,2013-04-10 15:05:00,
2013-04-10 11:09:00,79.1,63.6,30.02,West,274,2.0,5.0,59,0.00,,---,0.00,VWS V13.01,2013-04-10 15:09:00,
2013-04-10 11:10:00,79.3,63.3,30.02,West,276,0.0,5.0,58,0.00,,---,0.00,VWS V13.01,2013-04-10 15:10:00,
2013-04-10 11:11:00,79.3,63.3,30.02,West,276,0.0,5.0,58,0.00,,---,0.00,VWS V13.01,2013-04-10 15:11:00,
2013-04-10 11:14:00,79.5,63.0,30.02,WSW,242,4.0,10.0,57,0.00,,---,0.00,VWS V13.01,2013-04-10 15:14:00,
2013-04-10 11:15:00,79.6,63.0,30.02,SW,231,4.0,10.0,57,0.00,,---,0.00,VWS V13.01,2013-04-10 15:15:00,
2013-04-10 11:16:00,79.6,62.5,30.02,SW,231,1.0,10.0,56,0.00,,---,0.00,VWS V13.01,2013-04-10 15:16:00,
2013-04-10 11:19:00,79.7,63.1,30.02,SW,221,0.0,10.0,57,0.00,,---,0.00,VWS V13.01,2013-04-10 15:19:00,
2013-04-10 11:21:00,79.8,62.7,30.03,SSW,211,0.0,10.0,56,0.00,,---,0.00,VWS V13.01,2013-04-10 15:21:00,
2013-04-10 11:24:00,79.9,62.8,30.02,NW,304,6.0,10.0,56,0.00,,---,0.00,VWS V13.01,2013-04-10 15:24:00,
2013-04-10 11:26:00,80.0,63.4,30.02,WNW,288,6.0,10.0,57,0.00,,---,0.00,VWS V13.01,2013-04-10 15:26:00,
2013-04-10 11:29:00,80.2,63.6,30.02,WNW,288,0.0,10.0,57,0.00,,---,0.00,VWS V13.01,2013-04-10 15:29:00,
2013-04-10 11:31:00,80.3,63.2,30.02,WNW,292,5.0,6.0,56,0.00,,---,0.00,VWS V13.01,2013-04-10 15:31:00,
2013-04-10 11:32:00,80.3,63.2,30.02,NW,317,0.0,6.0,56,0.00,,---,0.00,VWS V13.01,2013-04-10 15:32:00,
2013-04-10 11:34:00,80.6,64.0,30.02,West,260,1.0,6.0,57,0.00,,---,0.00,VWS V13.01,2013-04-10 15:34:00,
2013-04-10 11:36:00,80.7,63.6,30.02,WNW,296,0.0,6.0,56,0.00,,---,0.00,VWS V13.01,2013-04-10 15:36:00,
2013-04-10 11:37:00,80.8,63.7,30.02,WSW,248,1.0,6.0,56,0.00,,---,0.00,VWS V13.01,2013-04-10 15:37:00,
2013-04-10 11:39:00,80.9,63.2,30.02,SSW,208,0.0,6.0,55,0.00,,---,0.00,VWS V13.01,2013-04-10 15:39:00,
2013-04-10 11:42:00,81.1,62.9,30.02,WNW,295,0.0,7.0,54,0.00,,---,0.00,VWS V13.01,2013-04-10 15:42:00,
2013-04-10 11:45:00,81.2,63.5,30.02,SSW,206,4.0,10.0,55,0.00,,---,0.00,VWS V13.01,2013-04-10 15:45:00,
2013-04-10 11:47:00,81.4,63.2,30.02,SW,225,0.0,10.0,54,0.00,,---,0.00,VWS V13.01,2013-04-10 15:47:00,
2013-04-10 11:50:00,81.7,64.5,30.02,West,280,0.0,10.0,56,0.00,,---,0.00,VWS V13.01,2013-04-10 15:50:00,
2013-04-10 11:52:00,81.8,63.5,30.02,West,277,0.0,10.0,54,0.00,,---,0.00,VWS V13.01,2013-04-10 15:52:00,
2013-04-10 11:55:00,82.1,63.3,30.02,WNW,288,1.0,10.0,53,0.00,,---,0.00,VWS V13.01,2013-04-10 15:55:00,
2013-04-10 11:57:00,82.1,62.8,30.02,WNW,283,3.0,11.0,52,0.00,,---,0.00,VWS V13.01,2013-04-10 15:57:00,
2013-04-10 12:00:00,82.2,62.8,30.02,WSW,238,0.0,11.0,52,0.00,,---,0.00,VWS V13.01,2013-04-10 16:00:00,
2013-04-10 12:02:00,82.2,63.4,30.01,WNW,291,3.0,3.0,53,0.00,,---,0.00,VWS V13.01,2013-04-10 16:02:00,
2013-04-10 12:03:00,82.2,63.4,30.01,WNW,286,1.0,3.0,53,0.00,,---,0.00,VWS V13.01,2013-04-10 16:03:00,
2013-04-10 12:05:00,82.3,63.5,30.01,SW,227,0.0,7.0,53,0.00,,---,0.00,VWS V13.01,2013-04-10 16:05:00,
2013-04-10 12:06:00,82.3,63.5,30.01,SW,227,0.0,7.0,53,0.00,,---,0.00,VWS V13.01,2013-04-10 16:06:00,
2013-04-10 12:07:00,82.4,63.6,30.01,WSW,240,1.0,7.0,53,0.00,,---,0.00,VWS V13.01,2013-04-10 16:07:00,
2013-04-10 12:08:00,82.4,63.6,30.01,WSW,240,0.0,7.0,53,0.00,,---,0.00,VWS V13.01,2013-04-10 16:08:00,
2013-04-10 12:11:00,82.5,63.7,30.01,West,274,1.0,7.0,53,0.00,,---,0.00,VWS V13.01,2013-04-10 16:11:00,
2013-04-10 12:12:00,82.6,63.8,30.01,West,273,0.0,7.0,53,0.00,,---,0.00,VWS V13.01,2013-04-10 16:12:00,
2013-04-10 12:13:00,82.7,62.8,30.01,SW,232,6.0,7.0,51,0.00,,---,0.00,VWS V13.01,2013-04-10 16:13:00,
2013-04-10 12:16:00,82.8,63.4,30.01,WSW,244,0.0,9.0,52,0.00,,---,0.00,VWS V13.01,2013-04-10 16:16:00,
2013-04-10 12:17:00,82.9,62.9,30.01,WSW,244,0.0,9.0,51,0.00,,---,0.00,VWS V13.01,2013-04-10 16:17:00,
2013-04-10 12:18:00,82.9,62.9,30.01,WSW,244,0.0,9.0,51,0.00,,---,0.00,VWS V13.01,2013-04-10 16:18:00,
2013-04-10 12:21:00,82.9,62.9,30.01,West,264,1.0,9.0,51,0.00,,---,0.00,VWS V13.01,2013-04-10 16:21:00,
2013-04-10 12:22:00,83.0,63.0,30.01,West,267,0.0,9.0,51,0.00,,---,0.00,VWS V13.01,2013-04-10 16:22:00,
2013-04-10 12:23:00,83.0,63.6,30.01,West,267,0.0,9.0,52,0.00,,---,0.00,VWS V13.01,2013-04-10 16:23:00,
2013-04-10 12:26:00,83.2,62.7,30.01,South,179,1.0,9.0,50,0.00,,---,0.00,VWS V13.01,2013-04-10 16:26:00,
2013-04-10 12:27:00,83.3,62.7,30.01,WSW,237,1.0,9.0,50,0.00,,---,0.00,VWS V13.01,2013-04-10 16:27:00,
2013-04-10 12:28:00,83.3,62.7,30.01,SW,217,0.0,9.0,50,0.00,,---,0.00,VWS V13.01,2013-04-10 16:28:00,
2013-04-10 12:32:00,83.5,62.9,30.01,SSE,157,0.0,3.0,50,0.00,,---,0.00,VWS V13.01,2013-04-10 16:32:00,
2013-04-10 12:33:00,83.6,63.0,30.01,WNW,285,2.0,3.0,50,0.00,,---,0.00,VWS V13.01,2013-04-10 16:33:00,
2013-04-10 12:34:00,83.7,63.7,30.01,WNW,284,0.0,3.0,51,0.00,,---,0.00,VWS V13.01,2013-04-10 16:34:00,
2013-04-10 12:37:00,83.9,63.3,30.01,WSW,244,0.0,10.0,50,0.00,,---,0.00,VWS V13.01,2013-04-10 16:37:00,
2013-04-10 12:38:00,83.9,62.7,30.01,WSW,245,0.0,10.0,49,0.00,,---,0.00,VWS V13.01,2013-04-10 16:38:00,
2013-04-10 12:39:00,83.9,62.7,30.01,West,275,8.0,10.0,49,0.00,,---,0.00,VWS V13.01,2013-04-10 16:39:00,
2013-04-10 12:42:00,84.0,62.8,30.00,SW,222,0.0,10.0,49,0.00,,---,0.00,VWS V13.01,2013-04-10 16:42:00,
2013-04-10 12:43:00,84.1,62.9,30.00,SW,222,0.0,10.0,49,0.00,,---,0.00,VWS V13.01,2013-04-10 16:43:00,
2013-04-10 12:44:00,84.1,62.9,30.00,SW,222,0.0,10.0,49,0.00,,---,0.00,VWS V13.01,2013-04-10 16:44:00,
2013-04-10 12:47:00,84.3,63.7,30.00,SW,223,0.0,10.0,50,0.00,,---,0.00,VWS V13.01,2013-04-10 16:47:00,
2013-04-10 12:48:00,84.3,63.1,30.00,SW,225,0.0,10.0,49,0.00,,---,0.00,VWS V13.01,2013-04-10 16:48:00,
2013-04-10 12:49:00,84.4,63.2,30.00,SSE,162,0.0,10.0,49,0.00,,---,0.00,VWS V13.01,2013-04-10 16:49:00,
2013-04-10 12:52:00,84.8,63.5,30.00,SE,142,0.0,10.0,49,0.00,,---,0.00,VWS V13.01,2013-04-10 16:52:00,
2013-04-10 12:53:00,84.8,63.5,30.00,SE,143,0.0,10.0,49,0.00,,---,0.00,VWS V13.01,2013-04-10 16:53:00,
2013-04-10 12:54:00,84.9,63.6,30.00,SW,223,1.0,10.0,49,0.00,,---,0.00,VWS V13.01,2013-04-10 16:54:00,
2013-04-10 12:57:00,85.1,63.2,30.00,SW,220,3.0,10.0,48,0.00,,---,0.00,VWS V13.01,2013-04-10 16:57:00,
2013-04-10 12:58:00,85.1,63.2,30.00,SSW,208,5.0,10.0,48,0.00,,---,0.00,VWS V13.01,2013-04-10 16:58:00,
2013-04-10 12:59:00,85.1,62.6,30.00,SSW,203,0.0,10.0,47,0.00,,---,0.00,VWS V13.01,2013-04-10 16:59:00,
2013-04-10 13:02:00,85.2,62.7,30.00,SE,131,2.0,9.0,47,0.00,,---,0.00,VWS V13.01,2013-04-10 17:02:00,
2013-04-10 13:03:00,85.2,62.7,30.00,SE,131,2.0,9.0,47,0.00,,---,0.00,VWS V13.01,2013-04-10 17:03:00,
2013-04-10 13:04:00,85.2,63.9,30.00,SSE,161,1.0,9.0,49,0.00,,---,0.00,VWS V13.01,2013-04-10 17:04:00,
2013-04-10 13:07:00,85.4,62.9,30.00,SW,232,4.0,10.0,47,0.00,,---,0.00,VWS V13.01,2013-04-10 17:07:00,
2013-04-10 13:08:00,85.4,63.5,30.00,West,275,6.0,10.0,48,0.00,,---,0.00,VWS V13.01,2013-04-10 17:08:00,
2013-04-10 13:09:00,85.4,62.9,30.00,West,267,6.0,10.0,47,0.00,,---,0.00,VWS V13.01,2013-04-10 17:09:00,
2013-04-10 13:13:00,85.3,63.4,30.00,SW,227,1.0,10.0,48,0.00,,---,0.00,VWS V13.01,2013-04-10 17:13:00,
2013-04-10 13:14:00,85.4,63.5,29.99,West,267,2.0,10.0,48,0.00,,---,0.00,VWS V13.01,2013-04-10 17:14:00,
2013-04-10 13:18:00,85.4,63.5,29.99,SSE,162,1.0,10.0,48,0.00,,---,0.00,VWS V13.01,2013-04-10 17:18:00,
2013-04-10 13:19:00,85.5,63.0,29.99,SSE,159,0.0,10.0,47,0.00,,---,0.00,VWS V13.01,2013-04-10 17:19:00,
2013-04-10 13:20:00,85.5,63.0,29.99,SE,140,0.0,10.0,47,0.00,,---,0.00,VWS V13.01,2013-04-10 17:20:00,
2013-04-10 13:23:00,85.6,63.1,29.99,South,178,9.0,10.0,47,0.00,,---,0.00,VWS V13.01,2013-04-10 17:23:00,
2013-04-10 13:24:00,85.6,63.1,29.99,SSW,207,1.0,10.0,47,0.00,,---,0.00,VWS V13.01,2013-04-10 17:24:00,
2013-04-10 13:25:00,85.6,62.5,29.99,SSW,206,0.0,10.0,46,0.00,,---,0.00,VWS V13.01,2013-04-10 17:25:00,
2013-04-10 13:28:00,85.7,63.2,29.98,SW,229,2.0,10.0,47,0.00,,---,0.00,VWS V13.01,2013-04-10 17:28:00,
2013-04-10 13:29:00,85.7,63.2,29.98,SW,233,0.0,10.0,47,0.00,,---,0.00,VWS V13.01,2013-04-10 17:29:00,
2013-04-10 13:30:00,85.8,63.9,29.99,SW,218,2.0,10.0,48,0.00,,---,0.00,VWS V13.01,2013-04-10 17:30:00,
2013-04-10 13:33:00,85.9,62.7,29.98,SSW,196,3.0,7.0,46,0.00,,---,0.00,VWS V13.01,2013-04-10 17:33:00,
2013-04-10 13:34:00,85.9,62.7,29.98,SW,219,0.0,7.0,46,0.00,,---,0.00,VWS V13.01,2013-04-10 17:34:00,
2013-04-10 13:35:00,85.9,63.3,29.98,SW,214,1.0,7.0,47,0.00,,---,0.00,VWS V13.01,2013-04-10 17:35:00,
2013-04-10 13:38:00,86.0,63.4,29.98,SSW,199,0.0,9.0,47,0.00,,---,0.00,VWS V13.01,2013-04-10 17:38:00,
2013-04-10 13:39:00,86.0,62.8,29.98,SSW,203,0.0,9.0,46,0.00,,---,0.00,VWS V13.01,2013-04-10 17:39:00,
2013-04-10 13:40:00,86.0,63.4,29.98,WSW,242,7.0,9.0,47,0.00,,---,0.00,VWS V13.01,2013-04-10 17:40:00,
2013-04-10 13:43:00,86.1,62.9,29.98,WSW,244,10.0,10.0,46,0.00,,---,0.00,VWS V13.01,2013-04-10 17:43:00,
2013-04-10 13:44:00,86.1,62.9,29.98,South,176,5.0,13.0,46,0.00,,---,0.00,VWS V13.01,2013-04-10 17:44:00,
2013-04-10 13:45:00,86.1,62.9,29.98,SW,218,0.0,13.0,46,0.00,,---,0.00,VWS V13.01,2013-04-10 17:45:00,
2013-04-10 13:49:00,86.0,62.8,29.98,South,188,2.0,13.0,46,0.00,,---,0.00,VWS V13.01,2013-04-10 17:49:00,
2013-04-10 13:51:00,85.9,62.7,29.98,WSW,243,0.0,13.0,46,0.00,,---,0.00,VWS V13.01,2013-04-10 17:51:00,
2013-04-10 13:54:00,86.0,62.8,29.97,SW,236,0.0,13.0,46,0.00,,---,0.00,VWS V13.01,2013-04-10 17:54:00,
2013-04-10 13:55:00,86.1,63.5,29.98,West,260,1.0,13.0,47,0.00,,---,0.00,VWS V13.01,2013-04-10 17:55:00,
2013-04-10 13:56:00,86.1,62.9,29.97,SSW,213,0.0,13.0,46,0.00,,---,0.00,VWS V13.01,2013-04-10 17:56:00,
2013-04-10 13:59:00,86.3,63.7,29.97,SW,223,3.0,13.0,47,0.00,,---,0.00,VWS V13.01,2013-04-10 17:59:00,
2013-04-10 14:00:00,86.3,63.1,29.97,SSW,198,1.0,13.0,46,0.00,,---,0.00,VWS V13.01,2013-04-10 18:00:00,
2013-04-10 14:02:00,86.5,63.3,29.97,SSW,198,4.0,4.0,46,0.00,,---,0.00,VWS V13.01,2013-04-10 18:02:00,
2013-04-10 14:04:00,86.6,63.4,29.97,SSW,204,0.0,9.0,46,0.00,,---,0.00,VWS V13.01,2013-04-10 18:04:00,
2013-04-10 14:05:00,86.6,63.4,29.97,West,262,3.0,14.0,46,0.00,,---,0.00,VWS V13.01,2013-04-10 18:05:00,
2013-04-10 14:07:00,86.8,63.6,29.97,West,279,5.0,14.0,46,0.00,,---,0.00,VWS V13.01,2013-04-10 18:07:00,
2013-04-10 14:09:00,86.8,63.6,29.97,WSW,256,7.0,14.0,46,0.00,,---,0.00,VWS V13.01,2013-04-10 18:09:00,
2013-04-10 14:10:00,86.8,62.9,29.97,WSW,257,0.0,14.0,45,0.00,,---,0.00,VWS V13.01,2013-04-10 18:10:00,
2013-04-10 14:12:00,86.9,63.7,29.97,SW,221,1.0,14.0,46,0.00,,---,0.00,VWS V13.01,2013-04-10 18:12:00,
2013-04-10 14:14:00,87.0,64.3,29.97,WSW,238,2.0,14.0,47,0.00,,---,0.00,VWS V13.01,2013-04-10 18:14:00,
2013-04-10 14:15:00,87.0,63.7,29.97,SW,217,6.0,14.0,46,0.00,,---,0.00,VWS V13.01,2013-04-10 18:15:00,
2013-04-10 14:17:00,87.1,63.2,29.96,SSW,212,6.0,14.0,45,0.00,,---,0.00,VWS V13.01,2013-04-10 18:17:00,
2013-04-10 14:19:00,87.1,63.8,29.96,South,183,7.0,14.0,46,0.00,,---,0.00,VWS V13.01,2013-04-10 18:19:00,
2013-04-10 14:20:00,87.2,63.9,29.96,South,172,8.0,14.0,46,0.00,,---,0.00,VWS V13.01,2013-04-10 18:20:00,
2013-04-10 14:23:00,87.2,63.9,29.96,SSE,153,4.0,14.0,46,0.00,,---,0.00,VWS V13.01,2013-04-10 18:23:00,
2013-04-10 14:24:00,87.2,63.9,29.96,SSW,196,9.0,14.0,46,0.00,,---,0.00,VWS V13.01,2013-04-10 18:24:00,
2013-04-10 14:25:00,87.2,63.3,29.96,WNW,284,4.0,14.0,45,0.00,,---,0.00,VWS V13.01,2013-04-10 18:25:00,
2013-04-10 14:28:00,87.3,64.6,29.96,South,182,0.0,14.0,47,0.00,,---,0.00,VWS V13.01,2013-04-10 18:28:00,
2013-04-10 14:29:00,87.3,64.6,29.96,South,182,0.0,14.0,47,0.00,,---,0.00,VWS V13.01,2013-04-10 18:29:00,
2013-04-10 14:30:00,87.4,63.5,29.96,South,186,1.0,14.0,45,0.00,,---,0.00,VWS V13.01,2013-04-10 18:30:00,
2013-04-10 14:34:00,87.5,62.9,29.96,South,183,5.0,14.0,44,0.00,,---,0.00,VWS V13.01,2013-04-10 18:34:00,
2013-04-10 14:35:00,87.5,62.9,29.96,SW,219,6.0,14.0,44,0.00,,---,0.00,VWS V13.01,2013-04-10 18:35:00,
2013-04-10 14:39:00,87.5,62.9,29.96,South,179,5.0,18.0,44,0.00,,---,0.00,VWS V13.01,2013-04-10 18:39:00,
2013-04-10 14:40:00,87.5,62.9,29.96,South,180,4.0,18.0,44,0.00,,---,0.00,VWS V13.01,2013-04-10 18:40:00,
2013-04-10 14:44:00,87.6,62.4,29.95,SW,233,1.0,18.0,43,0.00,,---,0.00,VWS V13.01,2013-04-10 18:44:00,
2013-04-10 14:45:00,87.6,63.0,29.95,WSW,248,2.0,18.0,44,0.00,,---,0.00,VWS V13.01,2013-04-10 18:45:00,
2013-04-10 14:49:00,87.6,62.4,29.95,West,269,5.0,18.0,43,0.00,,---,0.00,VWS V13.01,2013-04-10 18:49:00,
2013-04-10 14:50:00,87.7,61.8,29.95,WSW,244,7.0,18.0,42,0.00,,---,0.00,VWS V13.01,2013-04-10 18:50:00,
2013-04-10 14:51:00,87.7,61.8,29.95,West,261,4.0,18.0,42,0.00,,---,0.00,VWS V13.01,2013-04-10 18:51:00,
2013-04-10 14:55:00,87.7,62.5,29.95,South,181,2.0,18.0,43,0.00,,---,0.00,VWS V13.01,2013-04-10 18:55:00,
2013-04-10 14:56:00,87.8,63.2,29.95,SW,214,6.0,18.0,44,0.00,,---,0.00,VWS V13.01,2013-04-10 18:56:00,
2013-04-10 15:00:00,87.9,61.3,29.94,WSW,257,4.0,18.0,41,0.00,,---,0.00,VWS V13.01,2013-04-10 19:00:00,
2013-04-10 15:01:00,87.9,62.0,29.94,SE,141,4.0,18.0,42,0.00,,---,0.00,VWS V13.01,2013-04-10 19:01:00,
2013-04-10 15:02:00,87.9,61.3,29.94,SW,215,2.0,5.0,41,0.00,,---,0.00,VWS V13.01,2013-04-10 19:02:00,
2013-04-10 15:05:00,87.9,61.3,29.94,South,182,4.0,12.0,41,0.00,,---,0.00,VWS V13.01,2013-04-10 19:05:00,
2013-04-10 15:07:00,87.9,62.6,29.94,SSE,165,9.0,13.0,43,0.00,,---,0.00,VWS V13.01,2013-04-10 19:07:00,
2013-04-10 15:10:00,87.9,63.9,29.94,SW,217,0.0,15.0,45,0.00,,---,0.00,VWS V13.01,2013-04-10 19:10:00,
2013-04-10 15:12:00,88.0,62.0,29.94,South,171,11.0,15.0,42,0.00,,---,0.00,VWS V13.01,2013-04-10 19:12:00,
2013-04-10 15:15:00,88.0,62.7,29.94,SW,215,4.0,15.0,43,0.00,,---,0.00,VWS V13.01,2013-04-10 19:15:00,
2013-04-10 15:16:00,88.0,62.7,29.94,SSE,158,5.0,15.0,43,0.00,,---,0.00,VWS V13.01,2013-04-10 19:16:00,
2013-04-10 15:17:00,88.0,63.4,29.94,SW,232,4.0,15.0,44,0.00,,---,0.00,VWS V13.01,2013-04-10 19:17:00,
2013-04-10 15:18:00,88.0,62.7,29.93,West,263,4.0,15.0,43,0.00,,---,0.00,VWS V13.01,2013-04-10 19:18:00,
2013-04-10 15:20:00,88.0,62.7,29.93,SSW,200,5.0,15.0,43,0.00,,---,0.00,VWS V13.01,2013-04-10 19:20:00,
2013-04-10 15:21:00,88.0,63.4,29.93,SW,228,0.0,15.0,44,0.00,,---,0.00,VWS V13.01,2013-04-10 19:21:00,
2013-04-10 15:22:00,88.0,63.4,29.93,SSW,194,0.0,15.0,44,0.00,,---,0.00,VWS V13.01,2013-04-10 19:22:00,
2013-04-10 15:23:00,88.1,62.8,29.93,SSW,205,4.0,15.0,43,0.00,,---,0.00,VWS V13.01,2013-04-10 19:23:00,
2013-04-10 15:26:00,88.2,63.6,29.93,SW,229,4.0,15.0,44,0.00,,---,0.00,VWS V13.01,2013-04-10 19:26:00,
2013-04-10 15:27:00,88.2,63.6,29.93,SW,223,3.0,15.0,44,0.00,,---,0.00,VWS V13.01,2013-04-10 19:27:00,
2013-04-10 15:28:00,88.2,63.6,29.93,SW,223,0.0,15.0,44,0.00,,---,0.00,VWS V13.01,2013-04-10 19:28:00,
2013-04-10 15:31:00,88.4,63.1,29.92,WNW,282,5.0,9.0,43,0.00,,---,0.00,VWS V13.01,2013-04-10 19:31:00,
2013-04-10 15:32:00,88.4,63.1,29.92,SW,233,4.0,13.0,43,0.00,,---,0.00,VWS V13.01,2013-04-10 19:32:00,
2013-04-10 15:33:00,88.4,63.7,29.92,SSW,211,0.0,13.0,44,0.00,,---,0.00,VWS V13.01,2013-04-10 19:33:00,
2013-04-10 15:37:00,88.6,63.3,29.92,SSW,213,5.0,13.0,43,0.00,,---,0.00,VWS V13.01,2013-04-10 19:37:00,
2013-04-10 15:38:00,88.7,63.3,29.92,SSE,148,0.0,13.0,43,0.00,,---,0.00,VWS V13.01,2013-04-10 19:38:00,
2013-04-10 15:42:00,88.7,63.3,29.92,SW,233,0.0,16.0,43,0.00,,---,0.00,VWS V13.01,2013-04-10 19:42:00,
2013-04-10 15:43:00,88.7,63.3,29.92,South,178,2.0,16.0,43,0.00,,---,0.00,VWS V13.01,2013-04-10 19:43:00,
2013-04-10 15:47:00,88.6,62.6,29.92,West,260,6.0,16.0,42,0.00,,---,0.00,VWS V13.01,2013-04-10 19:47:00,
2013-04-10 15:48:00,88.6,63.3,29.92,West,281,1.0,16.0,43,0.00,,---,0.00,VWS V13.01,2013-04-10 19:48:00,
2013-04-10 15:52:00,88.7,62.7,29.91,SW,232,4.0,16.0,42,0.00,,---,0.00,VWS V13.01,2013-04-10 19:52:00,
2013-04-10 15:53:00,88.7,62.7,29.91,SSW,210,2.0,16.0,42,0.00,,---,0.00,VWS V13.01,2013-04-10 19:53:00,
2013-04-10 15:54:00,88.7,62.7,29.91,SSW,204,3.0,16.0,42,0.00,,---,0.00,VWS V13.01,2013-04-10 19:54:00,
2013-04-10 15:57:00,88.7,62.0,29.91,SW,227,11.0,16.0,41,0.00,,---,0.00,VWS V13.01,2013-04-10 19:57:00,
2013-04-10 15:58:00,88.7,62.0,29.91,SSW,193,4.0,17.0,41,0.00,,---,0.00,VWS V13.01,2013-04-10 19:58:00,
2013-04-10 15:59:00,88.7,62.0,29.91,WSW,237,4.0,17.0,41,0.00,,---,0.00,VWS V13.01,2013-04-10 19:59:00,
2013-04-10 16:02:00,88.6,61.9,29.91,SW,223,0.0,6.0,41,0.00,,---,0.00,VWS V13.01,2013-04-10 20:02:00,
2013-04-10 16:03:00,88.6,61.9,29.91,South,178,6.0,8.0,41,0.00,,---,0.00,VWS V13.01,2013-04-10 20:03:00,
2013-04-10 16:04:00,88.6,61.9,29.91,SSW,202,2.0,9.0,41,0.00,,---,0.00,VWS V13.01,2013-04-10 20:04:00,
2013-04-10 16:08:00,88.5,61.8,29.91,SSW,200,3.0,9.0,41,0.00,,---,0.00,VWS V13.01,2013-04-10 20:08:00,
2013-04-10 16:09:00,88.4,61.7,29.91,SW,222,0.0,17.0,41,0.00,,---,0.00,VWS V13.01,2013-04-10 20:09:00,
2013-04-10 16:13:00,88.3,60.9,29.90,West,260,0.0,17.0,40,0.00,,---,0.00,VWS V13.01,2013-04-10 20:13:00,
2013-04-10 16:14:00,88.2,61.5,29.90,WSW,257,4.0,17.0,41,0.00,,---,0.00,VWS V13.01,2013-04-10 20:14:00,
2013-04-10 16:18:00,88.1,61.5,29.90,SSW,211,10.0,17.0,41,0.00,,---,0.00,VWS V13.01,2013-04-10 20:18:00,
2013-04-10 16:19:00,88.0,61.4,29.90,SW,219,2.0,17.0,41,0.00,,---,0.00,VWS V13.01,2013-04-10 20:19:00,
2013-04-10 16:23:00,87.9,61.3,29.90,West,267,0.0,17.0,41,0.00,,---,0.00,VWS V13.01,2013-04-10 20:23:00,
2013-04-10 16:24:00,87.9,62.0,29.90,South,187,1.0,17.0,42,0.00,,---,0.00,VWS V13.01,2013-04-10 20:24:00,
2013-04-10 16:25:00,87.9,62.0,29.90,SSW,195,4.0,17.0,42,0.00,,---,0.00,VWS V13.01,2013-04-10 20:25:00,
2013-04-10 16:28:00,87.8,61.2,29.90,SSE,156,3.0,17.0,41,0.00,,---,0.00,VWS V13.01,2013-04-10 20:28:00,
2013-04-10 16:29:00,87.8,61.2,29.90,WNW,295,3.0,17.0,41,0.00,,---,0.00,VWS V13.01,2013-04-10 20:29:00,
2013-04-10 16:30:00,87.8,61.2,29.90,WNW,295,0.0,17.0,41,0.00,,---,0.00,VWS V13.01,2013-04-10 20:30:00,
2013-04-10 16:33:00,87.7,61.8,29.90,SSW,207,1.0,13.0,42,0.00,,---,0.00,VWS V13.01,2013-04-10 20:33:00,
2013-04-10 16:34:00,87.7,61.1,29.90,SSW,208,0.0,13.0,41,0.00,,---,0.00,VWS V13.01,2013-04-10 20:34:00,
2013-04-10 16:35:00,87.7,61.1,29.90,NW,304,0.0,13.0,41,0.00,,---,0.00,VWS V13.01,2013-04-10 20:35:00,
2013-04-10 16:39:00,87.7,61.1,29.90,SSW,198,5.0,13.0,41,0.00,,---,0.00,VWS V13.01,2013-04-10 20:39:00,
2013-04-10 16:40:00,87.7,61.8,29.90,SW,217,0.0,13.0,42,0.00,,---,0.00,VWS V13.01,2013-04-10 20:40:00,
2013-04-10 16:41:00,87.7,61.1,29.90,WSW,252,3.0,13.0,41,0.00,,---,0.00,VWS V13.01,2013-04-10 20:41:00,
2013-04-10 16:44:00,87.6,61.7,29.90,SW,222,0.0,13.0,42,0.00,,---,0.00,VWS V13.01,2013-04-10 20:44:00,
2013-04-10 16:45:00,87.6,61.7,29.90,SSW,211,1.0,13.0,42,0.00,,---,0.00,VWS V13.01,2013-04-10 20:45:00,
2013-04-10 16:46:00,87.6,61.7,29.90,SSW,209,2.0,13.0,42,0.00,,---,0.00,VWS V13.01,2013-04-10 20:46:00,
2013-04-10 16:49:00,87.6,61.0,29.90,West,263,4.0,13.0,41,0.00,,---,0.00,VWS V13.01,2013-04-10 20:49:00,
2013-04-10 16:50:00,87.6,61.0,29.90,West,269,9.0,13.0,41,0.00,,---,0.00,VWS V13.01,2013-04-10 20:50:00,
2013-04-10 16:52:00,87.6,61.7,29.90,West,274,4.0,13.0,42,0.00,,---,0.00,VWS V13.01,2013-04-10 20:52:00,
2013-04-10 16:54:00,87.6,61.7,29.90,WNW,300,0.0,13.0,42,0.00,,---,0.00,VWS V13.01,2013-04-10 20:54:00,
2013-04-10 16:55:00,87.6,61.0,29.90,WSW,252,0.0,13.0,41,0.00,,---,0.00,VWS V13.01,2013-04-10 20:55:00,
2013-04-10 16:57:00,87.5,61.6,29.89,SSW,206,3.0,13.0,42,0.00,,---,0.00,VWS V13.01,2013-04-10 20:57:00,
2013-04-10 16:59:00,87.5,60.9,29.89,West,268,0.0,13.0,41,0.00,,---,0.00,VWS V13.01,2013-04-10 20:59:00,
2013-04-10 17:00:00,87.5,61.6,29.89,West,269,1.0,13.0,42,0.00,,---,0.00,VWS V13.01,2013-04-10 21:00:00,
2013-04-10 17:02:00,87.5,61.6,29.89,West,273,3.0,9.0,42,0.00,,---,0.00,VWS V13.01,2013-04-10 21:02:00,
2013-04-10 17:04:00,87.5,60.9,29.89,ESE,123,0.0,11.0,41,0.00,,---,0.00,VWS V13.01,2013-04-10 21:04:00,
2013-04-10 17:06:00,87.5,61.6,29.89,WSW,240,5.0,11.0,42,0.00,,---,0.00,VWS V13.01,2013-04-10 21:06:00,
2013-04-10 17:07:00,87.5,60.9,29.89,SW,214,5.0,13.0,41,0.00,,---,0.00,VWS V13.01,2013-04-10 21:07:00,
2013-04-10 17:10:00,87.5,60.9,29.89,SW,229,5.0,13.0,41,0.00,,---,0.00,VWS V13.01,2013-04-10 21:10:00,
2013-04-10 17:11:00,87.5,60.9,29.89,South,177,12.0,13.0,41,0.00,,---,0.00,VWS V13.01,2013-04-10 21:11:00,
2013-04-10 17:12:00,87.4,60.8,29.89,West,277,6.0,13.0,41,0.00,,---,0.00,VWS V13.01,2013-04-10 21:12:00,
2013-04-10 17:15:00,87.3,60.0,29.89,SW,215,7.0,15.0,40,0.00,,---,0.00,VWS V13.01,2013-04-10 21:15:00,
2013-04-10 17:16:00,87.3,60.0,29.89,SW,225,4.0,15.0,40,0.00,,---,0.00,VWS V13.01,2013-04-10 21:16:00,
2013-04-10 17:18:00,87.2,60.7,29.89,SSW,200,3.0,15.0,41,0.00,,---,0.00,VWS V13.01,2013-04-10 21:18:00,
2013-04-10 17:20:00,87.2,60.0,29.89,South,188,7.0,15.0,40,0.00,,---,0.00,VWS V13.01,2013-04-10 21:20:00,
2013-04-10 17:21:00,87.2,60.7,29.89,NW,315,0.0,15.0,41,0.00,,---,0.00,VWS V13.01,2013-04-10 21:21:00,
2013-04-10 17:23:00,87.2,60.0,29.89,SW,222,6.0,15.0,40,0.00,,---,0.00,VWS V13.01,2013-04-10 21:23:00,
2013-04-10 17:25:00,87.2,60.0,29.89,SW,223,7.0,15.0,40,0.00,,---,0.00,VWS V13.01,2013-04-10 21:25:00,
2013-04-10 17:27:00,87.2,60.0,29.89,SSE,165,0.0,15.0,40,0.00,,---,0.00,VWS V13.01,2013-04-10 21:27:00,
2013-04-10 17:28:00,87.1,59.9,29.89,WSW,248,0.0,15.0,40,0.00,,---,0.00,VWS V13.01,2013-04-10 21:28:00,
2013-04-10 17:30:00,87.1,60.6,29.89,SW,234,0.0,15.0,41,0.00,,---,0.00,VWS V13.01,2013-04-10 21:30:00,
2013-04-10 17:32:00,87.1,60.6,29.89,WSW,245,3.0,7.0,41,0.00,,---,0.00,VWS V13.01,2013-04-10 21:32:00,
2013-04-10 17:33:00,87.1,60.6,29.89,South,173,6.0,7.0,41,0.00,,---,0.00,VWS V13.01,2013-04-10 21:33:00,
2013-04-10 17:35:00,87.1,60.6,29.89,SSW,196,7.0,8.0,41,0.00,,---,0.00,VWS V13.01,2013-04-10 21:35:00,
2013-04-10 17:37:00,87.1,61.2,29.88,SSW,207,4.0,12.0,42,0.00,,---,0.00,VWS V13.01,2013-04-10 21:37:00,
2013-04-10 17:39:00,87.1,61.9,29.88,WSW,245,1.0,12.0,43,0.00,,---,0.00,VWS V13.01,2013-04-10 21:39:00,
2013-04-10 17:40:00,87.1,61.9,29.88,WSW,245,0.0,12.0,43,0.00,,---,0.00,VWS V13.01,2013-04-10 21:40:00,
2013-04-10 17:43:00,87.0,61.2,29.88,West,273,0.0,12.0,42,0.00,,---,0.00,VWS V13.01,2013-04-10 21:43:00,
2013-04-10 17:44:00,87.0,61.2,29.88,WSW,257,6.0,15.0,42,0.00,,---,0.00,VWS V13.01,2013-04-10 21:44:00,
2013-04-10 17:45:00,87.0,61.2,29.88,WNW,284,10.0,15.0,42,0.00,,---,0.00,VWS V13.01,2013-04-10 21:45:00,
2013-04-10 17:48:00,87.0,60.5,29.88,WSW,249,2.0,15.0,41,0.00,,---,0.00,VWS V13.01,2013-04-10 21:48:00,
2013-04-10 17:49:00,86.9,60.4,29.88,SW,214,0.0,15.0,41,0.00,,---,0.00,VWS V13.01,2013-04-10 21:49:00,
2013-04-10 17:50:00,87.0,60.5,29.88,WSW,245,0.0,15.0,41,0.00,,---,0.00,VWS V13.01,2013-04-10 21:50:00,
2013-04-10 17:53:00,87.0,60.5,29.88,West,265,16.0,16.0,41,0.00,,---,0.00,VWS V13.01,2013-04-10 21:53:00,
2013-04-10 17:54:00,86.9,60.4,29.88,SSE,156,7.0,17.0,41,0.00,,---,0.00,VWS V13.01,2013-04-10 21:54:00,
2013-04-10 17:56:00,86.9,60.4,29.88,South,176,6.0,17.0,41,0.00,,---,0.00,VWS V13.01,2013-04-10 21:56:00,
2013-04-10 17:58:00,86.8,60.3,29.88,SSW,199,10.0,17.0,41,0.00,,---,0.00,VWS V13.01,2013-04-10 21:58:00,
2013-04-10 17:59:00,86.8,60.3,29.88,SW,223,5.0,17.0,41,0.00,,---,0.00,VWS V13.01,2013-04-10 21:59:00,
2013-04-10 18:01:00,86.7,60.2,29.88,West,261,7.0,17.0,41,0.00,,---,0.00,VWS V13.01,2013-04-10 22:01:00,
2013-04-10 18:03:00,86.6,60.8,29.88,SSE,150,1.0,18.0,42,0.00,,---,0.00,VWS V13.01,2013-04-10 22:03:00,
2013-04-10 18:04:00,86.6,60.1,29.88,SSW,207,0.0,18.0,41,0.00,,---,0.00,VWS V13.01,2013-04-10 22:04:00,
2013-04-10 18:06:00,86.5,60.0,29.88,WSW,254,6.0,18.0,41,0.00,,---,0.00,VWS V13.01,2013-04-10 22:06:00,
2013-04-10 18:07:00,86.4,60.6,29.88,SW,225,1.0,18.0,42,0.00,,---,0.00,VWS V13.01,2013-04-10 22:07:00,
2013-04-10 18:08:00,86.3,60.5,29.88,SW,235,5.0,18.0,42,0.00,,---,0.00,VWS V13.01,2013-04-10 22:08:00,
2013-04-10 18:09:00,86.2,60.4,29.88,SSW,213,8.0,18.0,42,0.00,,---,0.00,VWS V13.01,2013-04-10 22:09:00,
2013-04-10 18:11:00,86.2,60.4,29.88,West,259,2.0,18.0,42,0.00,,---,0.00,VWS V13.01,2013-04-10 22:11:00,
2013-04-10 18:12:00,86.1,60.3,29.88,SW,228,0.0,18.0,42,0.00,,---,0.00,VWS V13.01,2013-04-10 22:12:00,
2013-04-10 18:13:00,86.0,60.3,29.88,SW,218,1.0,18.0,42,0.00,,---,0.00,VWS V13.01,2013-04-10 22:13:00,
2013-04-10 18:15:00,85.9,60.2,29.88,WSW,241,0.0,18.0,42,0.00,,---,0.00,VWS V13.01,2013-04-10 22:15:00,
2013-04-10 18:16:00,85.8,60.1,29.88,NW,323,1.0,18.0,42,0.00,,---,0.00,VWS V13.01,2013-04-10 22:16:00,
2013-04-10 18:17:00,85.8,60.1,29.88,West,261,3.0,18.0,42,0.00,,---,0.00,VWS V13.01,2013-04-10 22:17:00,
2013-04-10 18:18:00,85.7,60.0,29.88,WSW,246,6.0,18.0,42,0.00,,---,0.00,VWS V13.01,2013-04-10 22:18:00,
2013-04-10 18:20:00,85.6,60.6,29.88,WSW,252,8.0,18.0,43,0.00,,---,0.00,VWS V13.01,2013-04-10 22:20:00,
2013-04-10 18:21:00,85.4,60.4,29.88,SW,222,0.0,18.0,43,0.00,,---,0.00,VWS V13.01,2013-04-10 22:21:00,
2013-04-10 18:22:00,85.4,60.4,29.88,SW,223,3.0,18.0,43,0.00,,---,0.00,VWS V13.01,2013-04-10 22:22:00,
2013-04-10 18:23:00,85.3,60.3,29.87,SW,214,4.0,18.0,43,0.00,,---,0.00,VWS V13.01,2013-04-10 22:23:00,
2013-04-10 18:25:00,85.2,60.8,29.88,SSW,211,5.0,18.0,44,0.00,,---,0.00,VWS V13.01,2013-04-10 22:25:00,
2013-04-10 18:27:00,85.0,60.7,29.88,SSW,203,6.0,18.0,44,0.00,,---,0.00,VWS V13.01,2013-04-10 22:27:00,
2013-04-10 18:28:00,84.9,60.6,29.87,SSW,196,3.0,18.0,44,0.00,,---,0.00,VWS V13.01,2013-04-10 22:28:00,
2013-04-10 18:30:00,84.8,60.5,29.88,SSW,195,4.0,18.0,44,0.00,,---,0.00,VWS V13.01,2013-04-10 22:30:00,
2013-04-10 18:32:00,84.6,60.3,29.87,SSW,194,4.0,12.0,44,0.00,,---,0.00,VWS V13.01,2013-04-10 22:32:00,
2013-04-10 18:34:00,84.5,60.8,29.87,South,180,0.0,15.0,45,0.00,,---,0.00,VWS V13.01,2013-04-10 22:34:00,
2013-04-10 18:35:00,84.3,60.7,29.87,SW,227,1.0,15.0,45,0.00,,---,0.00,VWS V13.01,2013-04-10 22:35:00,
2013-04-10 18:37:00,84.2,60.6,29.87,SW,219,1.0,15.0,45,0.00,,---,0.00,VWS V13.01,2013-04-10 22:37:00,
2013-04-10 18:39:00,84.1,60.5,29.87,SW,225,1.0,15.0,45,0.00,,---,0.00,VWS V13.01,2013-04-10 22:39:00,
2013-04-10 18:40:00,84.0,61.0,29.87,SW,222,1.0,15.0,46,0.00,,---,0.00,VWS V13.01,2013-04-10 22:40:00,
2013-04-10 18:42:00,83.9,60.9,29.87,West,259,0.0,15.0,46,0.00,,---,0.00,VWS V13.01,2013-04-10 22:42:00,
2013-04-10 18:44:00,83.8,60.8,29.87,WSW,238,0.0,15.0,46,0.00,,---,0.00,VWS V13.01,2013-04-10 22:44:00,
2013-04-10 18:45:00,83.8,60.2,29.87,South,187,11.0,15.0,45,0.00,,---,0.00,VWS V13.01,2013-04-10 22:45:00,
2013-04-10 18:47:00,83.7,60.7,29.87,South,170,4.0,15.0,46,0.00,,---,0.00,VWS V13.01,2013-04-10 22:47:00,
2013-04-10 18:48:00,83.7,60.7,29.87,South,177,3.0,15.0,46,0.00,,---,0.00,VWS V13.01,2013-04-10 22:48:00,
2013-04-10 18:49:00,83.6,60.7,29.87,South,169,12.0,15.0,46,0.00,,---,0.00,VWS V13.01,2013-04-10 22:49:00,
2013-04-10 18:50:00,83.6,60.7,29.87,South,187,3.0,15.0,46,0.00,,---,0.00,VWS V13.01,2013-04-10 22:50:00,
2013-04-10 18:52:00,83.4,61.1,29.87,SW,218,0.0,15.0,47,0.00,,---,0.00,VWS V13.01,2013-04-10 22:52:00,
2013-04-10 18:53:00,83.4,61.1,29.87,SW,218,0.0,15.0,47,0.00,,---,0.00,VWS V13.01,2013-04-10 22:53:00,
2013-04-10 18:54:00,83.4,61.1,29.87,SSE,157,0.0,15.0,47,0.00,,---,0.00,VWS V13.01,2013-04-10 22:54:00,
2013-04-10 18:55:00,83.3,61.6,29.87,SSW,203,5.0,15.0,48,0.00,,---,0.00,VWS V13.01,2013-04-10 22:55:00,
2013-04-10 18:58:00,83.2,61.5,29.87,SSW,206,6.0,15.0,48,0.00,,---,0.00,VWS V13.01,2013-04-10 22:58:00,
2013-04-10 18:59:00,83.1,61.4,29.87,South,188,5.0,15.0,48,0.00,,---,0.00,VWS V13.01,2013-04-10 22:59:00,
2013-04-10 19:00:00,83.0,61.3,29.87,SSW,199,7.0,15.0,48,0.00,,---,0.00,VWS V13.01,2013-04-10 23:00:00,
2013-04-10 19:03:00,82.9,61.8,29.87,SW,233,3.0,7.0,49,0.00,,---,0.00,VWS V13.01,2013-04-10 23:03:00,
2013-04-10 19:04:00,82.8,61.1,29.87,SW,231,4.0,12.0,48,0.00,,---,0.00,VWS V13.01,2013-04-10 23:04:00,
2013-04-10 19:06:00,82.8,61.7,29.87,SSW,194,0.0,12.0,49,0.00,,---,0.00,VWS V13.01,2013-04-10 23:06:00,
2013-04-10 19:08:00,82.7,61.6,29.87,SSW,198,0.0,12.0,49,0.00,,---,0.00,VWS V13.01,2013-04-10 23:08:00,
2013-04-10 19:09:00,82.6,61.5,29.87,SSW,213,0.0,12.0,49,0.00,,---,0.00,VWS V13.01,2013-04-10 23:09:00,
2013-04-10 19:11:00,82.5,61.4,29.87,South,178,6.0,12.0,49,0.00,,---,0.00,VWS V13.01,2013-04-10 23:11:00,
2013-04-10 19:13:00,82.4,61.3,29.87,SSW,194,6.0,13.0,49,0.00,,---,0.00,VWS V13.01,2013-04-10 23:13:00,
2013-04-10 19:14:00,82.3,61.2,29.87,SSE,164,0.0,13.0,49,0.00,,---,0.00,VWS V13.01,2013-04-10 23:14:00,
2013-04-10 19:16:00,82.3,61.2,29.87,South,175,2.0,13.0,49,0.00,,---,0.00,VWS V13.01,2013-04-10 23:16:00,
2013-04-10 19:18:00,82.1,61.6,29.87,South,188,0.0,13.0,50,0.00,,---,0.00,VWS V13.01,2013-04-10 23:18:00,
2013-04-10 19:20:00,82.1,61.6,29.87,South,184,0.0,13.0,50,0.00,,---,0.00,VWS V13.01,2013-04-10 23:20:00,
2013-04-10 19:21:00,82.0,61.5,29.87,South,175,10.0,13.0,50,0.00,,---,0.00,VWS V13.01,2013-04-10 23:21:00,
2013-04-10 19:23:00,81.9,61.5,29.87,SSW,196,0.0,13.0,50,0.00,,---,0.00,VWS V13.01,2013-04-10 23:23:00,
2013-04-10 19:25:00,81.8,61.4,29.87,SW,233,4.0,13.0,50,0.00,,---,0.00,VWS V13.01,2013-04-10 23:25:00,
2013-04-10 19:26:00,81.8,61.4,29.87,SSW,206,2.0,13.0,50,0.00,,---,0.00,VWS V13.01,2013-04-10 23:26:00,
2013-04-10 19:28:00,81.6,61.2,29.87,SSW,212,9.0,13.0,50,0.00,,---,0.00,VWS V13.01,2013-04-10 23:28:00,
2013-04-10 19:30:00,81.5,61.1,29.87,South,180,2.0,13.0,50,0.00,,---,0.00,VWS V13.01,2013-04-10 23:30:00,
2013-04-10 19:31:00,81.5,61.7,29.87,South,181,0.0,13.0,51,0.00,,---,0.00,VWS V13.01,2013-04-10 23:31:00,
2013-04-10 19:33:00,81.4,61.5,29.87,SSW,195,0.0,6.0,51,0.00,,---,0.00,VWS V13.01,2013-04-10 23:33:00,
2013-04-10 19:35:00,81.3,61.5,29.87,SSW,194,5.0,7.0,51,0.00,,---,0.00,VWS V13.01,2013-04-10 23:35:00,
2013-04-10 19:36:00,81.2,61.4,29.87,SSW,209,6.0,13.0,51,0.00,,---,0.00,VWS V13.01,2013-04-10 23:36:00,
2013-04-10 19:38:00,81.1,61.3,29.87,SSW,196,1.0,13.0,51,0.00,,---,0.00,VWS V13.01,2013-04-10 23:38:00,
2013-04-10 19:40:00,81.0,61.2,29.87,South,175,0.0,13.0,51,0.00,,---,0.00,VWS V13.01,2013-04-10 23:40:00,
2013-04-10 19:41:00,80.9,61.6,29.87,SSW,192,4.0,13.0,52,0.00,,---,0.00,VWS V13.01,2013-04-10 23:41:00,
2013-04-10 19:43:00,80.8,61.5,29.87,SSE,153,0.0,13.0,52,0.00,,---,0.00,VWS V13.01,2013-04-10 23:43:00,
2013-04-10 19:45:00,80.7,61.5,29.87,SW,221,12.0,13.0,52,0.00,,---,0.00,VWS V13.01,2013-04-10 23:45:00,
2013-04-10 19:47:00,80.5,61.3,29.87,SSE,165,5.0,13.0,52,0.00,,---,0.00,VWS V13.01,2013-04-10 23:47:00,
2013-04-10 19:49:00,80.5,61.3,29.87,SSE,155,1.0,13.0,52,0.00,,---,0.00,VWS V13.01,2013-04-10 23:49:00,
2013-04-10 19:50:00,80.4,61.2,29.87,SSE,156,0.0,13.0,52,0.00,,---,0.00,VWS V13.01,2013-04-10 23:50:00,
2013-04-10 19:53:00,80.2,61.0,29.87,SSW,213,4.0,13.0,52,0.00,,---,0.00,VWS V13.01,2013-04-10 23:53:00,
2013-04-10 19:54:00,80.1,60.9,29.87,South,172,5.0,13.0,52,0.00,,---,0.00,VWS V13.01,2013-04-10 23:54:00,
2013-04-10 19:55:00,80.1,61.4,29.87,South,190,4.0,13.0,53,0.00,,---,0.00,VWS V13.01,2013-04-10 23:55:00,
2013-04-10 19:58:00,79.9,61.3,29.87,SSE,168,0.0,13.0,53,0.00,,---,0.00,VWS V13.01,2013-04-10 23:58:00,
2013-04-10 19:59:00,79.9,61.3,29.87,SW,217,3.0,13.0,53,0.00,,---,0.00,VWS V13.01,2013-04-10 23:59:00,
2013-04-10 20:00:00,79.8,61.2,29.87,SW,217,0.0,13.0,53,0.00,,---,0.00,VWS V13.01,2013-04-11 00:00:00,
2013-04-10 20:03:00,79.7,61.1,29.87,SSW,213,0.0,7.0,53,0.00,,---,0.00,VWS V13.01,2013-04-11 00:03:00,
2013-04-10 20:04:00,79.6,61.0,29.87,SSW,213,0.0,7.0,53,0.00,,---,0.00,VWS V13.01,2013-04-11 00:04:00,
2013-04-10 20:05:00,79.6,61.0,29.87,SSW,205,0.0,7.0,53,0.00,,---,0.00,VWS V13.01,2013-04-11 00:05:00,
2013-04-10 20:08:00,79.5,60.9,29.87,SSW,205,4.0,7.0,53,0.00,,---,0.00,VWS V13.01,2013-04-11 00:08:00,
2013-04-10 20:09:00,79.4,61.3,29.87,SSW,204,0.0,7.0,54,0.00,,---,0.00,VWS V13.01,2013-04-11 00:09:00,
2013-04-10 20:10:00,79.4,61.3,29.87,SSW,205,3.0,7.0,54,0.00,,---,0.00,VWS V13.01,2013-04-11 00:10:00,
2013-04-10 20:13:00,79.2,61.1,29.87,SSW,198,2.0,7.0,54,0.00,,---,0.00,VWS V13.01,2013-04-11 00:13:00,
2013-04-10 20:15:00,79.1,61.0,29.87,SSW,199,0.0,7.0,54,0.00,,---,0.00,VWS V13.01,2013-04-11 00:15:00,
2013-04-10 20:19:00,78.9,60.9,29.87,SSW,213,0.0,10.0,54,0.00,,---,0.00,VWS V13.01,2013-04-11 00:19:00,
2013-04-10 20:20:00,78.8,60.8,29.87,SW,223,0.0,10.0,54,0.00,,---,0.00,VWS V13.01,2013-04-11 00:20:00,
2013-04-10 20:21:00,78.8,60.8,29.87,SW,223,0.0,10.0,54,0.00,,---,0.00,VWS V13.01,2013-04-11 00:21:00,
2013-04-10 20:24:00,78.7,60.7,29.87,SW,228,0.0,10.0,54,0.00,,---,0.00,VWS V13.01,2013-04-11 00:24:00,
2013-04-10 20:25:00,78.7,61.2,29.87,SW,214,5.0,10.0,55,0.00,,---,0.00,VWS V13.01,2013-04-11 00:25:00,
2013-04-10 20:26:00,78.6,61.1,29.87,SSE,167,0.0,10.0,55,0.00,,---,0.00,VWS V13.01,2013-04-11 00:26:00,
2013-04-10 20:29:00,78.3,60.8,29.87,SSW,192,2.0,10.0,55,0.00,,---,0.00,VWS V13.01,2013-04-11 00:29:00,
2013-04-10 20:30:00,78.2,60.7,29.87,South,187,1.0,10.0,55,0.00,,---,0.00,VWS V13.01,2013-04-11 00:30:00,
2013-04-10 20:31:00,78.2,60.7,29.87,SSW,202,0.0,1.0,55,0.00,,---,0.00,VWS V13.01,2013-04-11 00:31:00,
2013-04-10 20:34:00,78.0,61.0,29.87,SW,218,0.0,7.0,56,0.00,,---,0.00,VWS V13.01,2013-04-11 00:34:00,
2013-04-10 20:35:00,77.9,61.0,29.87,SW,221,0.0,7.0,56,0.00,,---,0.00,VWS V13.01,2013-04-11 00:35:00,
2013-04-10 20:36:00,77.8,60.4,29.87,SW,221,0.0,7.0,55,0.00,,---,0.00,VWS V13.01,2013-04-11 00:36:00,
2013-04-10 20:39:00,77.6,60.7,29.87,South,174,1.0,7.0,56,0.00,,---,0.00,VWS V13.01,2013-04-11 00:39:00,
2013-04-10 20:40:00,77.6,60.7,29.87,South,186,0.0,7.0,56,0.00,,---,0.00,VWS V13.01,2013-04-11 00:40:00,
2013-04-10 20:41:00,77.5,60.6,29.87,SSW,198,1.0,7.0,56,0.00,,---,0.00,VWS V13.01,2013-04-11 00:41:00,
2013-04-10 20:44:00,77.4,60.5,29.87,South,173,0.0,7.0,56,0.00,,---,0.00,VWS V13.01,2013-04-11 00:44:00,
2013-04-10 20:45:00,77.3,60.4,29.87,SSE,163,0.0,7.0,56,0.00,,---,0.00,VWS V13.01,2013-04-11 00:45:00,
2013-04-10 20:46:00,77.3,60.4,29.87,SSE,163,0.0,7.0,56,0.00,,---,0.00,VWS V13.01,2013-04-11 00:46:00,
2013-04-10 20:50:00,77.2,60.8,29.87,SSE,165,2.0,7.0,57,0.00,,---,0.00,VWS V13.01,2013-04-11 00:50:00,
2013-04-10 20:51:00,77.1,60.7,29.87,SSW,198,5.0,7.0,57,0.00,,---,0.00,VWS V13.01,2013-04-11 00:51:00,
2013-04-10 20:53:00,77.0,60.6,29.87,SW,219,0.0,7.0,57,0.00,,---,0.00,VWS V13.01,2013-04-11 00:53:00,
2013-04-10 20:55:00,77.0,60.6,29.87,SSW,202,0.0,7.0,57,0.00,,---,0.00,VWS V13.01,2013-04-11 00:55:00,
2013-04-10 20:56:00,76.9,60.5,29.87,SSW,196,4.0,7.0,57,0.00,,---,0.00,VWS V13.01,2013-04-11 00:56:00,
2013-04-10 20:58:00,76.9,60.5,29.87,SSW,213,0.0,7.0,57,0.00,,---,0.00,VWS V13.01,2013-04-11 00:58:00,
2013-04-10 21:00:00,76.8,60.4,29.87,SSW,206,0.0,7.0,57,0.00,,---,0.00,VWS V13.01,2013-04-11 01:00:00,
2013-04-10 21:01:00,76.7,60.3,29.87,SSW,209,0.0,2.0,57,0.00,,---,0.00,VWS V13.01,2013-04-11 01:01:00,
2013-04-10 21:03:00,76.7,60.3,29.87,SW,219,0.0,4.0,57,0.00,,---,0.00,VWS V13.01,2013-04-11 01:03:00,
2013-04-10 21:05:00,76.6,60.2,29.87,SSE,162,2.0,8.0,57,0.00,,---,0.00,VWS V13.01,2013-04-11 01:05:00,
2013-04-10 21:07:00,76.6,60.2,29.88,SSW,192,0.0,8.0,57,0.00,,---,0.00,VWS V13.01,2013-04-11 01:07:00,
2013-04-10 21:08:00,76.5,60.2,29.88,West,263,3.0,8.0,57,0.00,,---,0.00,VWS V13.01,2013-04-11 01:08:00,
2013-04-10 21:10:00,76.5,60.6,29.88,SSW,199,10.0,11.0,58,0.00,,---,0.00,VWS V13.01,2013-04-11 01:10:00,
2013-04-10 21:12:00,76.4,60.5,29.88,SSW,193,4.0,11.0,58,0.00,,---,0.00,VWS V13.01,2013-04-11 01:12:00,
2013-04-10 21:13:00,76.4,60.5,29.88,SW,215,0.0,11.0,58,0.00,,---,0.00,VWS V13.01,2013-04-11 01:13:00,
2013-04-10 21:15:00,76.3,60.5,29.88,South,180,4.0,11.0,58,0.00,,---,0.00,VWS V13.01,2013-04-11 01:15:00,
2013-04-10 21:17:00,76.2,60.4,29.88,SSW,194,5.0,11.0,58,0.00,,---,0.00,VWS V13.01,2013-04-11 01:17:00,
2013-04-10 21:18:00,76.2,60.4,29.88,South,187,7.0,11.0,58,0.00,,---,0.00,VWS V13.01,2013-04-11 01:18:00,
2013-04-10 21:20:00,76.2,60.4,29.88,SW,234,3.0,11.0,58,0.00,,---,0.00,VWS V13.01,2013-04-11 01:20:00,
2013-04-10 21:22:00,76.1,60.3,29.88,SSW,200,0.0,11.0,58,0.00,,---,0.00,VWS V13.01,2013-04-11 01:22:00,
2013-04-10 21:23:00,76.0,60.2,29.88,SSW,200,0.0,11.0,58,0.00,,---,0.00,VWS V13.01,2013-04-11 01:23:00,
2013-04-10 21:25:00,76.0,60.2,29.88,SSW,205,0.0,11.0,58,0.00,,---,0.00,VWS V13.01,2013-04-11 01:25:00,
2013-04-10 21:27:00,75.9,60.1,29.88,SSW,194,3.0,11.0,58,0.00,,---,0.00,VWS V13.01,2013-04-11 01:27:00,
2013-04-10 21:28:00,75.9,60.1,29.88,SSW,202,2.0,11.0,58,0.00,,---,0.00,VWS V13.01,2013-04-11 01:28:00,
2013-04-10 21:30:00,75.8,60.5,29.88,SW,232,0.0,11.0,59,0.00,,---,0.00,VWS V13.01,2013-04-11 01:30:00,
2013-04-10 21:32:00,75.8,60.5,29.88,SSW,203,0.0,7.0,59,0.00,,---,0.00,VWS V13.01,2013-04-11 01:32:00,
2013-04-10 21:33:00,75.8,60.5,29.88,SSW,204,1.0,7.0,59,0.00,,---,0.00,VWS V13.01,2013-04-11 01:33:00,
2013-04-10 21:35:00,75.7,60.4,29.88,SSW,203,5.0,7.0,59,0.00,,---,0.00,VWS V13.01,2013-04-11 01:35:00,
2013-04-10 21:38:00,75.6,60.3,29.88,SW,232,4.0,7.0,59,0.00,,---,0.00,VWS V13.01,2013-04-11 01:38:00,
2013-04-10 21:39:00,75.6,60.3,29.88,SSW,213,6.0,7.0,59,0.00,,---,0.00,VWS V13.01,2013-04-11 01:39:00,
2013-04-10 21:40:00,75.6,60.3,29.88,SSW,210,0.0,7.0,59,0.00,,---,0.00,VWS V13.01,2013-04-11 01:40:00,
2013-04-10 21:43:00,75.5,60.2,29.88,SSW,208,4.0,7.0,59,0.00,,---,0.00,VWS V13.01,2013-04-11 01:43:00,
2013-04-10 21:44:00,75.5,60.2,29.88,SSW,192,0.0,7.0,59,0.00,,---,0.00,VWS V13.01,2013-04-11 01:44:00,
2013-04-10 21:45:00,75.4,60.1,29.88,SSW,205,0.0,7.0,59,0.00,,---,0.00,VWS V13.01,2013-04-11 01:45:00,
2013-04-10 21:48:00,75.3,60.0,29.88,SW,225,0.0,7.0,59,0.00,,---,0.00,VWS V13.01,2013-04-11 01:48:00,
2013-04-10 21:49:00,75.3,60.0,29.88,SSE,157,4.0,7.0,59,0.00,,---,0.00,VWS V13.01,2013-04-11 01:49:00,
2013-04-10 21:50:00,75.3,60.5,29.88,South,180,0.0,7.0,60,0.00,,---,0.00,VWS V13.01,2013-04-11 01:50:00,
2013-04-10 21:53:00,75.2,60.4,29.88,SSW,212,1.0,7.0,60,0.00,,---,0.00,VWS V13.01,2013-04-11 01:53:00,
2013-04-10 21:54:00,75.1,60.3,29.88,WSW,244,0.0,7.0,60,0.00,,---,0.00,VWS V13.01,2013-04-11 01:54:00,
2013-04-10 21:55:00,75.1,60.3,29.88,SW,225,4.0,7.0,60,0.00,,---,0.00,VWS V13.01,2013-04-11 01:55:00,
2013-04-10 21:58:00,75.0,60.2,29.88,SSW,206,0.0,11.0,60,0.00,,---,0.00,VWS V13.01,2013-04-11 01:58:00,
2013-04-10 21:59:00,75.0,60.2,29.88,SSW,207,0.0,11.0,60,0.00,,---,0.00,VWS V13.01,2013-04-11 01:59:00,
2013-04-10 22:01:00,74.9,60.1,29.89,SSW,202,0.0,11.0,60,0.00,,---,0.00,VWS V13.01,2013-04-11 02:01:00,
2013-04-10 22:03:00,74.9,60.1,29.89,SW,227,4.0,7.0,60,0.00,,---,0.00,VWS V13.01,2013-04-11 02:03:00,
2013-04-10 22:04:00,74.9,60.1,29.89,SW,227,0.0,7.0,60,0.00,,---,0.00,VWS V13.01,2013-04-11 02:04:00,
2013-04-10 22:06:00,74.8,60.0,29.89,South,170,0.0,7.0,60,0.00,,---,0.00,VWS V13.01,2013-04-11 02:06:00,
2013-04-10 22:09:00,74.8,60.0,29.89,SW,217,0.0,7.0,60,0.00,,---,0.00,VWS V13.01,2013-04-11 02:09:00,
2013-04-10 22:12:00,74.7,60.4,29.88,SSE,163,0.0,7.0,61,0.00,,---,0.00,VWS V13.01,2013-04-11 02:12:00,
2013-04-10 22:14:00,74.6,60.3,29.88,SW,219,0.0,7.0,61,0.00,,---,0.00,VWS V13.01,2013-04-11 02:14:00,
2013-04-10 22:17:00,74.5,60.2,29.88,South,187,9.0,10.0,61,0.00,,---,0.00,VWS V13.01,2013-04-11 02:17:00,
2013-04-10 22:19:00,74.4,60.1,29.88,SSW,205,0.0,11.0,61,0.00,,---,0.00,VWS V13.01,2013-04-11 02:19:00,
2013-04-10 22:22:00,74.4,60.1,29.88,SW,221,0.0,11.0,61,0.00,,---,0.00,VWS V13.01,2013-04-11 02:22:00,
2013-04-10 22:24:00,74.3,60.0,29.88,SW,221,0.0,11.0,61,0.00,,---,0.00,VWS V13.01,2013-04-11 02:24:00,
2013-04-10 22:25:00,74.3,60.0,29.88,SW,221,0.0,11.0,61,0.00,,---,0.00,VWS V13.01,2013-04-11 02:25:00,
2013-04-10 22:27:00,74.2,59.9,29.88,SW,221,0.0,11.0,61,0.00,,---,0.00,VWS V13.01,2013-04-11 02:27:00,
2013-04-10 22:29:00,74.2,59.9,29.88,SSW,193,5.0,11.0,61,0.00,,---,0.00,VWS V13.01,2013-04-11 02:29:00,
2013-04-10 22:30:00,74.2,59.9,29.88,SSW,198,0.0,11.0,61,0.00,,---,0.00,VWS V13.01,2013-04-11 02:30:00,
2013-04-10 22:32:00,74.2,60.4,29.88,SSW,195,0.0,6.0,62,0.00,,---,0.00,VWS V13.01,2013-04-11 02:32:00,
2013-04-10 22:34:00,74.1,60.3,29.88,South,180,1.0,6.0,62,0.00,,---,0.00,VWS V13.01,2013-04-11 02:34:00,
2013-04-10 22:35:00,74.1,60.3,29.88,South,179,0.0,6.0,62,0.00,,---,0.00,VWS V13.01,2013-04-11 02:35:00,
2013-04-10 22:37:00,74.0,60.2,29.88,SSW,200,0.0,6.0,62,0.00,,---,0.00,VWS V13.01,2013-04-11 02:37:00,
2013-04-10 22:39:00,74.0,60.2,29.88,SSW,213,2.0,6.0,62,0.00,,---,0.00,VWS V13.01,2013-04-11 02:39:00,
2013-04-10 22:40:00,73.9,60.1,29.88,South,185,0.0,14.0,62,0.00,,---,0.00,VWS V13.01,2013-04-11 02:40:00,
2013-04-10 22:42:00,73.9,60.1,29.88,SSE,150,0.0,14.0,62,0.00,,---,0.00,VWS V13.01,2013-04-11 02:42:00,
2013-04-10 22:44:00,73.8,60.0,29.88,South,182,4.0,14.0,62,0.00,,---,0.00,VWS V13.01,2013-04-11 02:44:00,
2013-04-10 22:45:00,73.8,60.0,29.88,South,183,0.0,14.0,62,0.00,,---,0.00,VWS V13.01,2013-04-11 02:45:00,
2013-04-10 22:48:00,73.8,60.0,29.88,South,180,0.0,14.0,62,0.00,,---,0.00,VWS V13.01,2013-04-11 02:48:00,
2013-04-10 22:49:00,73.8,60.0,29.88,SW,214,6.0,14.0,62,0.00,,---,0.00,VWS V13.01,2013-04-11 02:49:00,
2013-04-10 22:50:00,73.8,60.0,29.88,South,182,6.0,14.0,62,0.00,,---,0.00,VWS V13.01,2013-04-11 02:50:00,
2013-04-10 22:53:00,73.7,59.9,29.88,SSW,196,0.0,14.0,62,0.00,,---,0.00,VWS V13.01,2013-04-11 02:53:00,
2013-04-10 22:54:00,73.7,59.9,29.88,SSW,195,0.0,14.0,62,0.00,,---,0.00,VWS V13.01,2013-04-11 02:54:00,
2013-04-10 22:55:00,73.7,59.9,29.88,SSW,192,10.0,14.0,62,0.00,,---,0.00,VWS V13.01,2013-04-11 02:55:00,
2013-04-10 22:58:00,73.6,59.8,29.88,SSW,197,0.0,14.0,62,0.00,,---,0.00,VWS V13.01,2013-04-11 02:58:00,
2013-04-10 22:59:00,73.5,60.2,29.88,SSW,199,0.0,14.0,63,0.00,,---,0.00,VWS V13.01,2013-04-11 02:59:00,
2013-04-10 23:00:00,73.5,59.7,29.88,SSW,198,2.0,14.0,62,0.00,,---,0.00,VWS V13.01,2013-04-11 03:00:00,
2013-04-10 23:03:00,73.5,59.7,29.88,SSW,202,0.0,3.0,62,0.00,,---,0.00,VWS V13.01,2013-04-11 03:03:00,
2013-04-10 23:04:00,73.4,60.0,29.88,SSW,192,0.0,4.0,63,0.00,,---,0.00,VWS V13.01,2013-04-11 03:04:00,
2013-04-10 23:05:00,73.4,60.0,29.87,SSW,192,0.0,4.0,63,0.00,,---,0.00,VWS V13.01,2013-04-11 03:05:00,
2013-04-10 23:08:00,73.3,60.0,29.87,South,190,0.0,6.0,63,0.00,,---,0.00,VWS V13.01,2013-04-11 03:08:00,
2013-04-10 23:10:00,73.2,59.9,29.88,SSW,199,9.0,10.0,63,0.00,,---,0.00,VWS V13.01,2013-04-11 03:10:00,
2013-04-10 23:11:00,73.2,59.9,29.88,SSE,166,0.0,10.0,63,0.00,,---,0.00,VWS V13.01,2013-04-11 03:11:00,
2013-04-10 23:13:00,73.1,59.8,29.87,SW,219,2.0,10.0,63,0.00,,---,0.00,VWS V13.01,2013-04-11 03:13:00,
2013-04-10 23:15:00,73.0,60.1,29.88,South,184,0.0,10.0,64,0.00,,---,0.00,VWS V13.01,2013-04-11 03:15:00,
2013-04-10 23:16:00,73.0,60.1,29.87,SSE,164,0.0,10.0,64,0.00,,---,0.00,VWS V13.01,2013-04-11 03:16:00,
2013-04-10 23:18:00,72.9,60.0,29.87,SW,222,0.0,10.0,64,0.00,,---,0.00,VWS V13.01,2013-04-11 03:18:00,
2013-04-10 23:20:00,72.8,59.9,29.87,SSW,207,0.0,10.0,64,0.00,,---,0.00,VWS V13.01,2013-04-11 03:20:00,
2013-04-10 23:21:00,72.7,59.8,29.87,SSW,196,4.0,10.0,64,0.00,,---,0.00,VWS V13.01,2013-04-11 03:21:00,
2013-04-10 23:23:00,72.6,59.7,29.87,SSW,213,0.0,10.0,64,0.00,,---,0.00,VWS V13.01,2013-04-11 03:23:00,
2013-04-10 23:25:00,72.5,59.6,29.87,SSW,206,1.0,10.0,64,0.00,,---,0.00,VWS V13.01,2013-04-11 03:25:00,
2013-04-10 23:27:00,72.4,60.0,29.87,SW,232,1.0,10.0,65,0.00,,---,0.00,VWS V13.01,2013-04-11 03:27:00,
2013-04-10 23:28:00,72.4,60.0,29.87,SSW,195,0.0,10.0,65,0.00,,---,0.00,VWS V13.01,2013-04-11 03:28:00,
2013-04-10 23:30:00,72.3,59.9,29.87,SSE,168,0.0,10.0,65,0.00,,---,0.00,VWS V13.01,2013-04-11 03:30:00,
2013-04-10 23:31:00,72.3,59.9,29.87,SSW,192,4.0,10.0,65,0.00,,---,0.00,VWS V13.01,2013-04-11 03:31:00,
2013-04-10 23:32:00,72.2,60.2,29.87,SSW,211,5.0,6.0,66,0.00,,---,0.00,VWS V13.01,2013-04-11 03:32:00,
2013-04-10 23:33:00,72.2,60.2,29.87,South,173,5.0,6.0,66,0.00,,---,0.00,VWS V13.01,2013-04-11 03:33:00,
2013-04-10 23:35:00,72.2,60.2,29.87,SSW,193,0.0,6.0,66,0.00,,---,0.00,VWS V13.01,2013-04-11 03:35:00,
2013-04-10 23:36:00,72.1,60.1,29.87,SW,217,2.0,6.0,66,0.00,,---,0.00,VWS V13.01,2013-04-11 03:36:00,
2013-04-10 23:37:00,72.1,60.1,29.87,SSE,165,0.0,11.0,66,0.00,,---,0.00,VWS V13.01,2013-04-11 03:37:00,
2013-04-10 23:38:00,72.1,60.1,29.87,SSW,212,5.0,11.0,66,0.00,,---,0.00,VWS V13.01,2013-04-11 03:38:00,
2013-04-10 23:40:00,72.0,60.0,29.87,SW,217,0.0,11.0,66,0.00,,---,0.00,VWS V13.01,2013-04-11 03:40:00,
2013-04-10 23:41:00,72.0,60.5,29.87,South,190,1.0,11.0,67,0.00,,---,0.00,VWS V13.01,2013-04-11 03:41:00,
2013-04-10 23:43:00,72.0,60.5,29.87,SW,234,7.0,11.0,67,0.00,,---,0.00,VWS V13.01,2013-04-11 03:43:00,
2013-04-10 23:45:00,72.0,60.5,29.87,WNW,295,0.0,11.0,67,0.00,,---,0.00,VWS V13.01,2013-04-11 03:45:00,
2013-04-10 23:47:00,71.9,60.4,29.87,SW,219,0.0,11.0,67,0.00,,---,0.00,VWS V13.01,2013-04-11 03:47:00,
2013-04-10 23:48:00,71.9,60.4,29.87,SW,229,2.0,11.0,67,0.00,,---,0.00,VWS V13.01,2013-04-11 03:48:00,
2013-04-10 23:50:00,71.8,60.3,29.87,SSE,156,6.0,11.0,67,0.00,,---,0.00,VWS V13.01,2013-04-11 03:50:00,
2013-04-10 23:52:00,71.8,60.3,29.87,SSW,202,0.0,11.0,67,0.00,,---,0.00,VWS V13.01,2013-04-11 03:52:00,
2013-04-10 23:53:00,71.8,60.3,29.87,South,188,3.0,11.0,67,0.00,,---,0.00,VWS V13.01,2013-04-11 03:53:00,
2013-04-10 23:54:00,71.8,60.3,29.87,SSW,192,1.0,11.0,67,0.00,,---,0.00,VWS V13.01,2013-04-11 03:54:00,
2013-04-10 23:55:00,71.7,60.2,29.87,South,187,1.0,11.0,67,0.00,,---,0.00,VWS V13.01,2013-04-11 03:55:00,
2013-04-10 23:57:00,71.7,60.6,29.87,SSW,206,4.0,11.0,68,0.00,,---,0.00,VWS V13.01,2013-04-11 03:57:00,
2013-04-10 23:58:00,71.7,60.6,29.87,SSW,213,0.0,11.0,68,0.00,,---,0.00,VWS V13.01,2013-04-11 03:58:00,
2013-04-10 23:59:00,71.7,60.6,29.87,SSW,213,2.0,11.0,68,0.00,,---,0.00,VWS V13.01,2013-04-11 03:59:00,